GFSGL_sfc_rhum_033.txt.gz
RH
31 36 41 33 29 30 30 30 30 34 34 33 34 37 38 37 37 46 49 54 52 51 47 52 55 51 50 47 40 38 38 37 41 38 34 37 42 43 41 40 40 42 40
32 34 36 29 26 28 29 29 32 35 35 34 36 37 37 40 48 53 51 46 50 51 52 52 49 38 41 39 37 38 38 37 39 43 42 44 46 44 45 44 35 29 38
32 31 26 26 27 29 28 31 34 36 35 36 38 39 41 44 47 48 47 49 50 50 49 49 40 40 42 39 40 41 40 33 41 52 54 49 45 42 42 42 41 42 33
27 27 24 26 30 29 30 34 37 36 38 39 40 40 44 42 42 44 45 45 49 45 40 40 40 40 40 46 43 45 41 44 46 51 52 47 47 48 52 47 54 48 45
35 24 25 28 30 31 35 38 39 39 39 40 39 42 48 48 40 50 46 45 41 39 39 35 36 42 48 51 46 48 50 54 56 57 57 64 62 54 55 49 51 50 53
29 26 27 28 28 33 37 40 39 38 38 40 41 44 46 40 76 65 60 47 43 38 39 38 37 46 47 54 57 58 60 61 71 76 61 68 57 50 63 70 69 66 58
26 26 27 28 32 35 33 33 35 40 42 43 44 46 53 51 67 62 61 47 44 42 42 42 38 30 47 42 53 57 58 63 69 67 72 72 75 61 57 62 60 70 68
27 26 25 31 33 33 34 35 39 41 44 44 47 49 54 49 68 62 62 51 45 45 45 44 42 42 46 57 55 54 46 42 40 37 51 53 51 50 53 54 60 60 56
26 25 25 29 32 34 35 37 39 44 45 45 43 51 51 54 68 63 60 52 51 50 46 43 44 44 56 64 58 62 52 46 43 54 52 58 64 68 66 68 80 72 80
25 26 28 29 33 35 38 40 42 44 42 40 42 46 57 52 68 64 60 61 68 60 50 45 58 51 60 62 68 68 71 53 45 46 53 53 53 56 71 67 73 89 77
25 30 31 32 34 34 38 41 44 44 47 57 65 59 57 60 59 67 63 66 67 64 59 52 49 62 60 62 63 67 72 61 61 60 60 58 58 56 55 58 65 80 88
38 36 34 32 31 33 43 46 45 47 53 60 96 76 72 64 72 71 68 70 66 75 68 59 63 67 64 63 59 56 63 66 69 75 74 68 69 68 66 66 79 88 94
38 39 38 37 39 41 44 45 45 46 54 62 66 87 75 64 66 77 73 70 71 81 69 67 68 64 60 58 48 56 68 59 64 73 78 71 69 66 69 77 76 79 86
44 41 41 44 46 44 44 43 44 59 65 65 72 70 66 61 63 70 79 75 76 81 76 69 68 70 68 71 61 53 54 59 58 62 67 65 69 70 74 74 84 80 84
41 45 51 54 53 49 43 43 51 55 67 73 75 74 94 91 70 73 77 77 80 77 77 72 67 62 63 58 55 53 54 52 55 58 63 64 59 63 73 73 76 76 82
56 55 64 62 59 54 50 51 65 77 80 76 77 86 93 78 79 78 74 71 71 70 71 72 75 80 75 69 64 60 58 57 55 59 61 60 62 63 64 68 69 76 79
60 62 61 65 57 57 60 65 72 68 83 83 81 81 83 82 82 83 81 77 78 75 79 71 78 81 77 62 57 56 59 58 64 58 61 65 67 64 69 66 67 71 72
62 76 62 58 61 69 68 73 78 86 91 88 90 84 84 85 85 84 84 82 82 87 71 69 71 73 70 60 55 57 60 66 67 64 68 70 73 70 70 63 62 70 64
59 58 66 74 80 77 79 83 81 84 86 84 80 85 90 86 85 85 83 85 78 78 74 76 75 65 64 63 70 75 81 78 77 79 73 70 76 70 68 64 66 68 66
50 70 74 66 73 75 80 81 81 84 86 86 86 85 84 93 98 98 97 97 91 82 81 76 66 63 69 70 79 82 81 81 78 74 73 75 76 74 70 67 68 69 59
59 63 78 72 78 80 86 91 83 86 86 85 90 99 93 84 90 92 89 93 92 84 87 82 85 84 80 80 75 77 77 79 75 74 72 70 75 80 71 66 65 61 58
70 74 81 89 88 98 90 90 89 84 83 86 89 91 93 94 87 86 87 92 97 90 87 87 84 81 81 76 76 80 79 81 80 77 79 70 69 72 73 71 67 66 61
84 96 93 95 93 90 96 91 92 96 94 95 90 90 100 100 97 88 90 97 93 93 91 88 96 88 86 88 88 78 78 75 73 75 76 74 69 71 74 73 67 67 67
83 98 95 98 99 89 96 98 100 98 98 97 100 100 100 100 100 100 100 100 98 100 98 94 88 86 84 90 90 83 75 74 72 71 75 75 70 66 68 65 65 66 67
100 100 100 98 97 100 100 98 100 100 100 100 100 100 97 100 100 100 100 100 100 100 100 100 98 91 89 86 86 83 77 73 75 70 75 74 71 71 72 67 68 66 64
97 98 100 100 98 98 100 99 99 100 100 100 100 100 100 100 97 100 100 100 100 100 100 100 100 99 98 93 85 81 79 80 84 82 77 70 71 71 70 68 64 68 63

GFSGL_sfc_rhum_039.txt.gz
RH
54 57 65 61 67 48 48 50 49 51 48 51 49 52 53 58 62 66 70 69 74 75 74 75 72 68 71 77 72 72 73 72 74 68 63 65 65 67 57 60 61 57 57
51 58 59 57 49 48 49 48 50 49 51 48 51 52 56 60 58 63 68 68 68 71 71 70 70 55 63 68 74 68 69 70 74 71 70 66 70 69 64 68 53 48 54
49 50 50 54 48 49 48 51 51 52 54 50 51 57 60 61 58 61 60 67 68 67 70 70 67 58 67 72 67 68 70 55 74 79 72 68 69 69 67 69 70 66 55
47 50 54 53 46 46 49 45 55 54 53 51 55 59 65 61 56 58 58 69 67 63 64 64 61 62 60 60 58 63 61 73 76 81 74 70 70 69 78 73 79 75 74
49 47 55 54 53 51 50 53 58 55 50 53 57 62 64 61 54 67 61 65 64 64 66 59 58 61 62 59 56 69 76 81 85 84 78 78 77 75 77 92 80 70 66
49 52 57 59 54 53 54 54 56 56 55 57 58 61 64 50 78 72 67 66 62 64 68 68 62 59 66 65 59 58 65 80 88 94 82 83 74 84 91 86 78 81 82
51 52 54 54 50 51 47 48 50 52 56 59 61 65 67 72 80 75 70 63 64 68 73 71 62 54 69 64 61 61 62 58 75 84 83 80 78 74 78 78 80 85 86
48 52 56 55 50 55 54 55 55 59 60 66 66 65 68 73 82 78 73 68 69 74 74 71 71 72 72 69 73 73 71 71 66 58 74 70 71 71 79 77 81 86 84
47 46 49 54 53 56 58 60 60 53 63 66 64 64 70 78 84 80 71 71 74 76 74 72 73 72 66 61 72 77 78 72 57 59 60 66 68 68 70 86 95 91 91
56 55 56 58 57 62 71 62 59 61 60 64 64 71 71 85 84 79 73 90 87 89 82 76 66 70 63 63 88 89 92 74 73 71 70 71 73 77 76 82 91 95 94
56 57 56 61 65 64 61 61 60 64 68 78 83 81 76 84 87 80 76 84 87 90 90 90 87 68 70 67 67 88 88 75 77 76 78 76 76 79 75 76 81 90 95
55 59 62 61 59 52 60 65 66 69 78 84 92 92 94 87 85 83 81 79 80 91 88 91 91 76 70 69 74 74 70 78 96 93 93 83 90 81 74 79 84 86 81
64 70 67 63 58 55 64 70 76 76 84 86 95 96 96 94 95 87 83 83 81 91 92 86 79 76 73 82 78 75 81 89 94 97 90 95 92 81 80 81 78 78 84
70 71 71 70 67 70 70 75 80 92 95 95 94 94 94 96 96 98 92 88 84 87 86 88 95 96 96 91 88 82 89 94 94 94 96 92 93 95 93 85 85 86 91
70 69 72 76 79 83 80 80 85 85 88 91 93 93 94 96 97 96 97 97 96 91 98 98 96 97 95 94 94 93 94 94 94 95 95 96 94 95 90 86 82 81 91
74 78 89 90 92 88 87 81 80 81 80 81 83 89 90 89 89 89 98 97 94 94 97 98 98 97 96 95 94 93 96 91 96 94 95 96 97 97 94 87 86 88 90
82 85 91 91 90 88 90 91 81 84 78 81 84 86 87 82 86 96 89 91 98 98 98 98 98 97 95 91 93 94 92 94 91 95 96 95 97 95 96 94 94 87 85
85 87 87 88 90 87 88 86 86 91 90 89 88 84 85 88 88 86 93 99 98 98 96 96 95 94 92 91 91 93 96 96 96 97 96 97 98 97 98 95 93 97 89
83 90 88 88 88 88 88 92 98 97 98 92 92 95 93 87 89 90 95 98 96 96 95 95 95 93 92 90 93 93 94 96 97 98 97 99 99 98 97 97 97 95 95
80 86 86 83 85 89 94 97 98 98 98 95 96 96 94 99 98 97 96 98 97 94 94 94 93 93 91 90 94 94 95 96 97 99 98 99 98 98 97 98 98 98 95
81 83 88 83 85 90 90 90 92 98 96 98 88 92 92 97 97 96 96 96 96 96 94 92 91 94 93 91 95 95 93 94 95 96 97 97 100 95 96 98 98 96 96
86 83 81 82 80 83 86 85 95 92 98 96 94 96 94 93 98 97 95 96 94 96 91 90 91 91 91 89 90 92 90 93 94 95 95 97 96 95 97 98 97 97 96
81 84 87 87 85 86 90 93 97 98 97 96 96 95 91 96 98 97 96 95 98 98 97 94 92 93 90 90 89 89 88 88 89 91 93 96 96 96 98 96 97 95 95
93 94 90 90 90 95 95 94 90 97 98 98 99 97 95 97 99 98 97 98 98 98 98 98 98 96 94 91 90 90 86 86 90 89 89 93 93 94 97 97 95 95 96
91 92 90 90 91 93 94 94 95 96 96 96 96 96 95 94 93 96 96 96 98 98 99 98 98 98 98 98 97 92 91 91 92 90 89 90 91 93 96 95 96 95 93
89 91 90 91 92 92 93 94 95 95 95 95 95 96 95 94 93 93 94 94 95 95 98 98 98 98 98 97 97 98 96 95 96 92 88 88 92 96 97 94 95 96 92

GFSGL_sfc_rhum_042.txt.gz
RH
55 69 71 76 75 62 64 62 61 58 55 56 58 52 52 60 66 67 71 72 74 75 75 75 73 72 79 75 74 73 71 70 73 72 70 72 73 72 64 67 66 65 66
56 59 63 60 51 56 57 54 58 54 58 60 56 54 56 62 63 64 70 70 70 72 72 71 72 56 62 70 71 67 68 70 74 74 76 74 72 70 71 75 62 53 63
57 52 52 51 51 57 59 58 60 59 59 56 55 55 59 66 63 66 67 69 72 70 70 63 64 62 63 71 66 67 70 57 74 79 77 76 76 74 72 73 76 73 64
56 50 54 57 54 56 56 58 59 61 59 55 56 60 65 67 64 63 60 71 72 63 64 62 62 62 61 61 60 65 64 73 78 82 77 75 76 72 80 80 80 75 65
59 55 66 63 60 61 64 64 66 62 56 57 60 61 65 66 60 67 66 71 68 66 66 60 62 62 62 66 61 71 76 81 84 83 80 81 78 75 81 84 92 71 69
66 71 71 64 55 59 61 62 62 59 57 56 55 65 66 59 70 77 74 71 64 65 65 66 67 63 65 68 63 66 70 80 83 93 88 85 77 85 87 85 82 85 86
59 61 59 58 61 64 57 58 55 54 53 56 66 67 70 71 77 81 77 68 66 68 68 71 66 56 71 66 62 60 62 60 76 90 90 85 84 72 73 82 84 90 91
60 60 58 60 60 63 66 63 69 61 63 66 68 71 73 68 83 82 79 69 71 69 73 73 74 73 74 69 72 71 70 68 67 61 78 79 74 76 79 86 94 94 91
59 61 63 64 67 70 82 82 71 70 67 70 70 74 75 75 85 85 80 73 72 74 71 74 75 76 72 68 73 77 75 71 52 58 61 65 65 67 72 83 92 95 90
73 70 70 75 82 81 76 78 76 74 70 68 68 73 77 79 86 86 80 83 83 85 83 79 72 70 73 68 87 88 90 71 68 74 73 70 72 75 75 84 92 96 93
65 72 83 78 75 72 76 74 71 71 74 81 83 85 85 84 86 87 84 84 83 84 86 89 85 73 70 71 73 90 88 73 80 81 77 79 77 77 69 72 79 94 96
74 69 69 68 64 61 73 75 74 80 86 86 92 88 94 90 87 86 86 84 79 88 85 84 87 77 74 77 78 78 75 85 96 95 93 89 86 82 72 78 82 84 85
70 72 73 72 71 70 76 79 84 86 92 90 93 94 94 92 93 88 87 86 85 88 85 84 80 76 77 83 80 80 86 96 95 97 91 94 92 86 81 85 79 80 83
73 75 77 79 76 78 80 84 90 94 93 89 93 93 93 94 95 96 96 94 88 94 87 86 86 92 96 95 96 88 94 96 95 94 96 95 94 95 94 92 92 89 90
74 76 78 81 82 85 86 90 90 88 89 88 91 92 93 91 89 87 93 98 97 95 97 97 97 98 99 96 95 94 95 96 97 96 96 96 97 97 96 94 93 89 94
79 82 86 88 90 88 88 82 81 84 83 86 86 89 90 87 85 84 90 95 97 95 97 97 96 96 96 96 93 95 95 94 94 91 96 97 97 98 98 94 92 95 94
91 90 90 89 88 87 86 88 89 78 84 83 83 83 88 84 86 88 88 94 98 98 97 98 96 97 96 93 91 95 95 92 93 90 95 94 97 97 98 97 96 96 92
91 92 93 94 94 91 89 89 89 94 94 89 87 93 98 86 86 87 89 91 98 98 97 96 95 95 94 92 93 96 95 97 93 94 97 97 98 98 98 97 97 100 96
79 86 85 90 91 89 88 90 83 87 95 88 92 98 95 89 88 88 88 96 96 96 93 95 93 93 94 94 94 96 96 95 93 97 97 98 99 98 98 97 98 99 99
85 88 90 87 84 82 82 83 83 83 86 95 96 96 97 100 99 94 95 95 97 97 94 93 96 96 94 95 94 94 97 96 95 96 97 98 100 99 98 97 98 100 98
77 76 81 82 87 88 81 89 90 89 88 86 95 98 96 97 95 90 91 96 96 97 96 96 95 96 94 94 94 95 96 96 94 92 96 97 100 99 96 97 99 98 98
88 90 88 91 85 92 88 90 95 94 95 95 92 97 99 99 94 88 88 96 97 95 94 97 96 97 92 93 93 95 96 96 94 93 95 96 96 96 97 98 99 98 97
88 92 90 84 88 87 90 90 93 93 94 96 97 98 98 97 95 94 98 98 99 96 96 98 97 97 94 94 95 93 93 92 90 90 92 95 96 95 98 98 97 97 97
90 94 88 90 92 92 92 93 91 90 93 94 95 95 95 96 95 95 95 94 95 94 97 99 97 97 98 96 97 97 95 88 87 89 87 91 94 95 98 97 97 98 97
94 96 92 94 94 94 93 92 91 91 92 94 95 95 94 95 93 93 93 92 91 93 92 94 98 99 98 98 97 97 96 96 96 94 96 94 93 92 92 94 97 97 98
94 92 95 94 94 94 94 93 92 92 92 92 94 94 95 94 94 94 92 91 91 91 91 93 94 97 98 97 96 96 97 97 96 96 96 95 95 95 92 90 91 97 95

GFSGL_sfc_rhum_045.txt.gz
RH
70 76 78 75 70 66 65 65 65 66 63 65 74 64 62 63 74 74 74 75 76 78 75 76 76 75 78 75 74 72 71 71 73 68 73 72 74 73 68 76 73 74 75
71 77 80 72 65 64 62 63 61 66 67 73 69 62 59 64 71 70 71 70 75 77 75 76 74 64 66 67 73 69 69 69 69 70 73 76 75 72 76 79 64 58 68
75 77 78 73 68 70 68 63 72 74 71 67 63 60 60 67 69 70 73 76 77 76 76 76 65 70 67 73 74 71 70 59 74 80 78 79 80 78 74 76 76 74 65
71 70 74 73 78 77 71 66 66 65 63 58 58 60 64 65 68 69 69 74 78 77 75 67 65 67 66 68 65 66 64 71 77 84 81 74 77 75 83 84 78 74 68
72 75 82 71 67 66 66 70 71 65 60 58 58 64 67 69 66 72 69 76 80 77 73 66 68 66 60 63 62 69 73 82 84 85 79 75 78 77 83 79 79 70 72
82 77 71 67 64 70 70 70 65 60 52 62 74 65 68 62 71 77 78 82 76 74 75 70 65 67 73 69 72 65 75 82 82 88 80 83 80 84 84 85 85 88 82
72 68 64 65 66 68 68 69 70 81 86 83 69 69 71 74 79 79 83 82 80 77 73 70 68 58 70 73 76 69 65 63 81 84 90 87 92 80 76 87 87 90 91
62 62 67 71 73 72 73 83 90 89 82 75 74 75 78 73 80 83 86 84 79 75 72 71 78 70 74 71 72 73 69 68 66 59 75 82 80 78 84 82 92 92 86
67 67 68 72 75 84 90 94 88 80 79 79 76 80 81 81 80 83 90 85 78 76 71 77 74 78 74 74 77 79 75 72 57 57 61 63 66 64 66 87 93 94 91
71 69 71 80 92 95 91 79 80 81 80 80 76 78 79 84 81 84 90 93 87 81 82 78 79 81 76 77 89 89 93 78 66 66 74 71 68 74 72 81 93 97 93
82 92 91 84 79 77 79 80 77 79 82 86 86 87 85 86 87 83 89 91 88 88 85 84 80 80 75 75 76 91 90 76 77 80 81 80 76 76 71 70 78 91 96
72 70 71 72 69 66 78 81 81 85 88 88 92 90 91 88 86 87 87 89 86 90 87 85 84 79 77 76 77 82 80 88 95 97 97 94 90 88 72 78 82 84 84
72 74 75 75 76 77 82 83 87 89 93 91 92 90 86 91 93 88 89 88 90 93 86 85 83 81 81 82 82 85 87 96 97 99 96 93 95 86 82 88 81 82 84
75 77 80 83 81 82 85 86 92 94 93 88 88 86 88 88 94 94 94 95 92 93 93 90 92 98 92 90 94 90 96 96 96 96 97 97 94 97 96 96 98 94 92
83 85 86 88 88 86 84 86 85 85 88 82 82 87 88 88 85 85 88 95 96 95 95 97 98 97 97 94 96 95 96 97 98 98 98 96 95 97 97 97 97 95 98
88 90 95 94 93 90 88 83 80 84 82 84 85 88 86 85 85 84 96 88 89 92 98 97 97 97 96 93 96 95 96 96 95 96 96 92 93 96 98 97 98 99 98
88 91 91 88 89 91 90 90 88 75 73 79 85 85 86 88 87 99 100 95 91 91 98 96 96 96 96 95 96 95 94 94 92 95 94 92 95 95 98 98 98 99 98
88 91 95 94 94 93 91 87 88 88 88 80 71 80 84 87 94 96 98 99 99 94 97 96 95 93 94 95 96 94 95 95 97 96 96 95 96 97 98 98 97 100 99
76 79 82 89 88 89 90 90 84 85 88 90 83 78 88 91 92 94 94 98 96 96 84 89 93 95 94 94 96 94 94 95 97 97 94 94 97 97 99 98 98 99 100
79 88 90 89 90 89 85 81 85 87 85 92 89 86 90 99 98 98 98 98 97 88 88 96 95 94 96 96 97 95 96 97 98 96 95 94 96 98 98 98 99 100 98
90 85 89 85 85 86 89 85 90 94 92 90 91 93 95 97 97 97 94 89 88 87 94 98 97 95 96 96 96 96 95 95 95 95 94 94 97 100 98 97 98 98 98
85 90 86 86 88 92 92 89 93 91 89 90 90 87 90 93 95 95 95 95 96 98 99 99 97 96 97 96 96 96 96 95 95 95 96 94 94 97 98 98 99 99 97
92 94 88 86 92 93 93 92 92 92 91 91 90 92 92 94 95 94 95 94 93 94 94 95 96 98 97 97 97 96 96 95 93 92 94 95 95 96 97 97 98 98 98
95 99 92 92 95 94 95 95 93 93 92 92 92 92 93 94 95 95 95 94 93 92 92 93 93 95 97 97 97 97 96 94 97 94 90 93 94 95 95 97 97 98 98
99 100 100 98 100 98 97 95 94 94 94 94 93 93 91 92 92 94 94 94 94 91 90 90 92 93 93 96 98 98 97 97 97 96 96 94 93 94 92 92 96 96 97
98 98 98 100 100 98 97 97 96 95 96 94 94 92 93 93 90 92 93 92 92 91 89 89 90 93 94 95 98 98 98 98 97 97 96 96 95 95 94 93 91 94 92

GFSGL_sfc_rhum_048.txt.gz
RH
97 97 96 96 92 90 87 85 80 74 84 82 68 75 76 68 68 76 80 75 81 82 83 85 83 82 85 86 83 78 84 84 77 63 64 63 63 62 62 65 68 67 69
93 93 93 91 88 89 90 82 81 79 70 73 85 74 65 61 71 78 73 72 80 81 81 81 82 69 81 77 74 72 70 68 67 66 65 66 68 66 67 68 60 55 63
92 93 92 89 87 86 81 75 71 74 77 71 69 65 63 68 69 75 75 75 79 79 79 82 80 81 82 74 74 74 70 59 69 73 70 72 72 69 64 67 69 67 62
91 93 94 92 83 78 74 72 72 71 70 72 69 64 69 76 70 74 72 78 81 80 83 84 80 73 72 68 68 72 67 68 70 74 77 72 69 65 74 76 73 60 61
88 87 92 87 77 75 74 74 78 73 66 63 71 86 80 71 64 75 75 79 81 83 86 79 75 71 67 69 62 65 67 71 75 79 76 71 65 68 64 72 73 70 70
89 83 74 70 70 73 71 68 67 66 69 86 90 90 84 68 73 79 82 85 83 85 84 79 73 68 75 76 77 71 65 77 82 81 75 73 68 69 80 82 81 83 74
77 70 70 70 68 68 66 69 72 85 94 94 93 86 78 77 78 80 84 90 88 84 81 77 70 60 71 72 72 80 76 73 82 79 83 76 80 74 73 79 78 84 83
74 69 67 70 73 76 82 89 94 95 96 95 85 80 80 75 81 84 85 88 90 86 82 77 73 72 73 73 73 81 72 66 68 68 73 70 72 72 75 76 85 85 75
66 70 74 77 81 86 89 95 97 96 90 84 80 82 84 82 81 82 86 92 92 85 76 75 72 80 75 75 80 79 71 66 62 67 64 66 68 66 66 79 83 86 90
73 74 78 88 96 96 96 93 86 83 83 83 81 81 82 85 81 82 86 96 95 89 83 77 78 78 79 85 90 88 89 74 71 60 60 65 66 67 72 74 80 90 88
93 90 80 76 76 79 81 82 81 83 85 87 87 87 86 86 84 82 84 96 94 91 88 86 82 81 83 84 83 90 86 71 80 70 66 74 73 72 69 67 68 81 88
69 68 70 73 72 72 82 84 82 86 89 89 92 88 90 89 84 82 84 88 92 94 91 88 89 83 82 97 83 84 80 87 93 93 95 93 92 86 71 68 72 76 78
76 81 84 83 82 83 84 87 88 90 92 89 90 90 86 84 93 85 85 89 91 97 93 90 86 85 84 98 96 84 86 94 96 98 96 93 87 79 73 79 76 75 77
88 90 90 90 89 89 90 90 94 96 94 89 89 90 89 86 87 93 90 89 88 94 97 94 94 92 96 96 96 97 96 95 94 95 93 88 88 87 87 84 88 86 88
85 88 88 88 91 87 87 92 89 89 95 88 87 87 88 86 86 84 87 87 93 96 96 98 98 98 96 95 95 96 96 96 96 95 96 94 90 86 87 87 87 87 93
84 89 96 96 95 86 86 82 71 74 74 76 76 80 78 76 78 82 86 94 98 98 98 98 98 97 96 92 96 94 93 95 94 93 94 94 92 91 87 88 89 90 93
91 84 87 86 86 90 88 90 93 77 69 68 68 71 74 78 79 79 81 97 98 99 99 98 97 95 94 92 94 93 96 93 94 93 93 94 93 90 92 90 92 91 91
79 87 91 92 96 94 97 94 87 84 87 86 74 73 76 80 84 83 84 97 97 92 98 98 98 96 92 92 95 94 94 96 95 95 96 96 95 92 93 92 92 94 92
78 88 91 97 96 95 90 89 90 89 90 89 83 79 80 81 77 80 86 96 98 98 95 94 92 93 93 92 95 97 96 96 96 97 96 95 96 92 94 92 93 96 96
74 88 88 84 87 90 89 92 87 90 89 89 89 90 86 87 89 90 90 94 95 95 95 91 86 83 96 97 96 97 97 97 96 96 96 96 95 94 94 94 96 93 91
82 82 87 82 88 89 91 92 92 92 92 91 91 90 87 92 93 93 93 94 94 92 94 94 95 98 98 97 96 96 96 96 95 94 94 94 95 96 94 94 95 91 91
87 83 84 88 88 94 93 90 94 94 92 92 91 88 86 91 92 90 90 93 95 94 94 95 94 95 96 97 97 97 96 96 96 94 94 94 92 94 94 95 96 94 93
95 96 91 85 91 96 96 93 96 95 94 94 93 92 91 92 92 91 91 92 92 94 93 93 93 92 92 93 95 97 96 95 93 95 93 94 95 95 95 95 94 95 94
96 99 94 96 99 97 100 100 100 96 94 95 95 94 94 93 94 92 91 91 90 92 94 94 93 92 91 92 92 94 97 97 97 96 91 93 94 94 95 94 93 94 92
100 100 100 100 100 100 100 100 100 100 98 97 96 95 94 93 92 91 90 89 89 90 92 93 94 92 91 92 93 93 95 97 97 97 96 94 93 94 93 91 92 90 90
98 99 100 100 100 100 100 100 100 100 98 98 96 95 95 95 92 92 90 89 89 89 88 92 93 94 92 91 91 94 94 97 97 97 96 96 95 95 94 94 94 90 88

GFSGL_sfc_rhum_051.txt.gz
RH
74 80 87 89 88 89 92 89 85 80 74 74 77 66 76 92 80 67 70 70 62 60 60 60 58 57 55 55 58 57 54 54 60 43 38 39 43 42 39 41 40 37 36
81 88 91 91 92 94 93 89 82 76 73 78 76 75 84 71 68 74 70 54 57 59 59 60 60 50 61 58 55 55 51 47 48 45 37 38 44 43 45 45 34 30 38
82 83 89 89 86 88 85 80 73 73 75 75 79 81 66 65 66 62 58 58 61 60 58 59 58 58 60 55 56 52 48 43 44 46 41 38 43 43 43 40 35 40 34
81 82 86 86 82 79 77 73 72 69 66 67 66 80 76 66 58 58 58 60 60 58 59 60 58 59 58 55 54 52 47 46 43 43 43 41 43 42 43 38 37 34 36
83 80 82 78 72 69 68 76 79 76 65 69 65 78 76 71 68 68 61 61 59 59 61 59 61 64 69 62 47 50 49 49 44 49 47 45 44 42 41 36 41 38 41
75 78 71 72 66 72 70 65 60 79 65 82 86 82 87 84 82 84 76 60 56 58 57 56 58 71 73 78 79 73 62 51 57 57 49 49 46 46 43 44 47 50 51
65 64 64 64 65 67 70 76 74 85 88 92 95 96 91 79 82 82 83 59 61 59 59 57 55 52 66 55 73 81 81 78 74 60 63 54 57 49 39 44 47 50 51
61 62 65 72 78 77 80 91 94 93 93 93 82 77 71 60 79 84 87 60 57 57 59 59 60 57 57 57 58 63 52 56 60 54 52 50 49 44 44 52 58 59 49
70 73 75 79 82 88 92 93 92 80 74 70 65 64 64 61 80 83 78 60 60 59 56 57 59 58 66 75 66 79 59 61 60 67 64 65 68 66 67 59 66 64 71
73 78 83 79 78 82 80 67 64 62 60 58 58 61 67 63 73 82 76 70 75 69 60 59 78 66 74 83 83 88 92 66 52 50 52 56 58 53 67 56 56 70 65
62 60 62 61 60 59 60 60 60 58 62 68 70 65 64 66 64 79 82 74 78 76 69 64 64 81 82 83 82 90 92 71 66 55 51 46 41 44 47 47 47 56 66
54 58 62 63 59 58 63 63 61 62 68 69 92 73 65 66 75 78 80 83 79 88 82 71 72 83 85 85 83 84 91 95 75 74 72 65 60 59 51 49 51 53 51
65 66 62 58 54 51 49 51 48 49 57 63 61 68 61 64 61 76 86 86 84 88 88 91 85 86 87 87 88 88 96 93 94 90 80 69 64 57 58 64 60 57 57
61 59 53 50 48 46 44 46 48 58 63 60 63 66 69 66 68 66 74 77 76 85 84 89 96 98 98 87 91 94 96 94 91 89 82 66 66 73 75 68 71 69 70
55 51 50 52 52 48 48 53 58 58 69 70 68 69 86 88 80 82 82 83 87 84 96 99 95 94 95 90 90 88 86 90 91 90 91 80 78 72 73 69 70 67 72
47 48 62 60 60 55 51 50 62 66 65 66 68 76 76 76 75 74 76 83 86 87 96 97 98 98 96 92 86 80 83 89 87 85 89 86 82 78 75 72 70 73 70
52 54 56 61 60 62 62 61 63 59 63 66 67 68 70 74 75 74 74 78 84 88 95 94 97 100 95 92 80 80 83 81 88 91 92 89 88 79 83 77 77 75 72
59 78 62 64 67 67 66 68 68 73 78 72 63 66 71 75 75 74 76 74 79 79 91 96 98 96 87 81 80 82 83 87 92 91 92 91 91 84 84 79 75 78 72
56 60 68 71 70 73 70 71 69 72 73 70 66 64 70 77 74 73 75 82 85 84 84 84 92 92 92 92 96 95 98 96 97 95 93 91 94 82 84 77 75 78 80
56 76 67 65 68 69 69 72 70 73 72 74 73 75 73 76 84 85 83 86 85 80 85 84 84 83 89 95 99 100 100 98 95 92 92 95 92 87 84 80 82 81 72
61 61 75 63 68 69 72 73 73 76 77 76 79 80 82 84 83 82 80 83 83 83 86 85 89 88 90 93 92 97 93 96 92 91 92 92 90 91 82 80 82 78 71
70 66 67 72 71 77 74 71 78 78 75 77 78 73 78 82 80 79 79 83 87 83 84 88 85 90 91 91 91 93 93 94 93 92 93 93 85 85 83 84 85 84 77
73 76 72 69 74 78 79 74 79 81 79 81 79 80 80 84 84 81 83 85 82 84 82 83 88 87 90 91 91 91 91 92 94 94 94 94 86 84 88 88 86 86 82
72 79 73 78 83 78 83 85 83 78 80 83 86 85 84 84 86 85 84 84 83 84 85 87 86 86 88 90 88 86 84 90 93 95 95 94 90 84 86 86 87 86 83
81 81 83 83 86 88 87 83 84 86 86 86 87 86 82 84 81 84 84 83 84 85 85 86 87 86 86 88 90 88 88 91 93 95 94 95 94 87 86 86 87 84 83
77 76 80 85 86 88 87 87 87 87 88 88 88 88 87 85 82 85 84 85 84 87 86 84 85 83 86 85 86 86 90 91 93 94 96 93 93 92 90 91 91 88 84

GFSGL_sfc_rhum_054.txt.gz
RH
52 60 67 67 69 75 88 88 88 87 82 85 77 77 77 81 87 88 82 71 78 67 51 48 48 44 42 40 41 40 40 39 41 35 30 31 36 39 36 35 35 35 31
53 58 66 76 81 90 93 90 89 84 82 72 75 76 72 84 87 74 80 76 68 51 48 47 46 36 46 47 42 44 42 40 40 44 36 33 34 36 38 40 32 24 28
56 65 82 88 91 93 92 89 84 78 74 77 76 69 76 84 70 86 83 70 55 50 50 46 44 46 47 44 44 43 40 34 39 41 40 35 33 33 37 37 35 33 23
74 80 87 89 88 86 83 81 78 78 77 77 76 78 75 80 87 82 70 62 58 51 50 50 46 45 46 46 42 43 43 45 42 43 43 39 36 36 37 36 34 26 26
79 82 83 77 71 70 70 66 69 71 69 66 74 79 85 82 68 71 72 74 65 54 51 45 46 50 64 60 40 42 44 50 47 51 52 45 43 42 40 32 34 28 31
74 72 68 65 63 64 62 63 68 64 62 65 78 86 83 73 87 92 86 62 52 48 47 44 42 56 64 80 79 77 59 51 60 66 52 55 51 45 35 37 37 34 39
60 60 58 56 59 59 58 60 66 67 78 83 86 86 85 85 91 90 86 52 47 47 47 45 40 32 50 44 68 82 78 75 82 67 60 58 57 41 39 40 36 37 40
53 53 54 57 58 62 71 80 84 90 86 86 82 66 60 50 77 80 85 54 48 45 44 43 44 44 42 46 49 51 53 56 66 58 53 50 43 41 41 41 43 48 44
54 56 57 61 65 69 67 70 73 64 56 52 48 49 48 46 74 81 75 50 46 46 41 41 41 43 52 72 56 60 56 58 61 71 72 70 62 62 61 50 57 57 66
60 60 57 58 64 63 57 53 50 45 43 40 41 43 52 48 65 79 72 64 66 62 55 49 60 56 66 79 67 68 74 63 62 60 52 60 66 59 75 55 49 60 56
51 51 51 49 48 46 45 44 44 43 48 58 60 57 52 53 52 72 78 63 62 66 66 62 61 73 82 82 82 70 80 67 69 70 70 58 44 43 40 46 44 48 56
46 45 44 44 40 40 45 44 40 40 44 45 74 51 49 49 60 61 73 76 74 74 68 66 64 77 84 94 86 81 83 87 94 100 90 85 54 48 39 39 43 43 41
45 45 45 41 36 32 32 34 30 34 42 48 46 55 49 53 49 65 69 74 73 78 70 71 78 84 90 92 98 99 94 92 96 96 89 79 71 53 49 54 50 48 49
44 41 36 33 30 30 27 28 32 44 48 47 52 54 56 54 55 58 62 64 69 74 73 72 77 83 86 89 92 96 97 99 96 91 89 74 74 78 67 61 65 62 63
35 32 33 36 33 31 30 37 44 48 60 59 59 59 77 77 65 72 73 73 79 77 89 90 80 75 70 72 84 91 99 96 95 90 91 90 88 83 80 69 68 62 65
30 33 47 44 44 34 30 33 67 62 62 63 65 72 71 67 71 72 69 72 74 71 80 86 97 98 92 77 85 96 96 95 83 85 87 85 88 84 84 76 70 69 65
34 38 43 45 42 42 43 44 46 54 57 58 58 62 65 71 73 72 70 71 65 66 75 80 89 89 94 88 71 90 96 89 87 85 86 91 94 91 91 85 83 72 68
47 60 43 45 44 50 49 53 53 60 68 63 52 56 61 67 71 68 68 65 65 62 65 72 81 82 76 78 82 88 88 89 92 86 92 96 100 92 93 86 80 79 66
40 44 53 59 61 60 59 59 58 60 63 60 56 52 57 66 66 63 64 72 75 69 65 66 73 75 78 78 88 91 100 100 100 100 96 96 100 92 93 85 76 72 68
48 64 58 52 56 57 57 60 58 62 61 63 63 65 64 66 77 77 75 79 78 71 73 69 69 73 83 87 90 91 91 99 100 96 100 100 100 97 94 89 80 80 68
41 46 64 50 54 56 60 62 61 65 67 66 69 72 73 77 75 74 72 75 76 76 79 77 79 81 81 86 80 88 90 95 97 94 96 95 100 96 92 84 78 70 63
51 52 56 61 59 68 63 60 67 68 66 67 69 64 66 74 71 70 70 76 81 76 75 78 80 78 80 81 87 92 91 93 91 94 96 95 95 95 92 84 81 83 69
60 66 60 57 63 68 74 67 71 74 71 72 69 71 72 77 78 74 77 80 76 77 75 76 80 78 77 82 84 87 89 87 88 90 93 96 94 94 94 85 84 84 76
65 74 62 72 78 70 78 81 77 69 71 76 80 79 77 78 81 79 80 80 78 79 79 79 78 77 76 81 84 84 86 87 85 86 92 94 95 94 94 84 83 80 77
76 78 78 75 77 81 82 77 78 79 79 80 82 81 76 79 76 79 79 78 77 79 78 82 80 78 79 81 83 86 89 88 89 89 90 93 97 98 93 84 81 81 82
70 71 74 77 78 80 81 81 80 80 81 82 82 82 82 79 77 80 79 78 78 80 81 79 79 80 82 80 78 87 89 89 90 89 92 91 96 95 95 93 86 85 83

GFSGL_sfc_rhum_057.txt.gz
RH
48 59 72 79 74 74 86 86 85 82 82 85 87 92 89 87 85 92 86 86 88 90 75 72 66 53 50 48 46 41 40 40 45 38 30 33 41 40 34 36 38 39 38
45 56 71 77 85 87 90 92 92 90 86 86 86 85 80 89 90 83 81 80 85 77 72 70 60 43 55 52 48 50 46 42 43 48 40 37 41 40 41 41 33 26 33
44 79 82 87 91 93 93 91 88 87 87 85 82 82 81 83 80 76 77 83 82 77 70 60 59 56 56 51 49 46 43 34 42 44 43 39 39 37 38 40 38 42 29
68 74 88 91 91 90 87 84 83 80 81 82 80 78 86 86 77 80 83 87 79 70 70 65 57 52 52 50 46 48 42 45 45 47 46 45 45 39 40 40 44 39 35
80 83 88 84 79 78 77 77 80 78 76 72 77 76 78 81 82 90 84 78 81 76 76 61 50 52 62 61 43 51 52 48 44 49 52 51 46 48 50 45 48 43 38
77 73 70 66 63 65 66 68 67 67 67 71 77 84 91 77 87 89 87 82 68 54 49 44 42 52 55 73 70 74 63 60 64 62 55 58 58 58 52 55 56 46 46
61 59 56 56 58 59 55 55 57 63 65 70 81 75 76 75 87 91 95 62 51 48 46 45 39 30 48 39 53 77 76 80 83 68 72 64 65 61 56 54 52 48 45
52 51 52 54 54 56 58 62 67 68 71 72 70 70 70 53 84 81 82 51 46 43 41 41 44 44 45 49 48 51 51 50 58 60 60 59 60 64 54 54 50 47 44
50 51 53 58 61 60 62 64 65 68 64 54 45 44 43 41 75 81 69 54 54 54 46 45 45 48 57 71 62 62 56 58 51 80 79 80 71 66 58 53 64 62 72
52 54 54 54 56 57 58 54 48 43 39 35 36 39 57 45 79 75 62 54 60 56 50 45 57 56 66 74 76 77 77 64 60 57 69 74 74 66 74 55 54 69 62
50 51 51 48 47 46 44 40 38 38 42 54 52 49 40 47 48 70 74 58 64 71 65 61 57 66 71 79 81 76 82 82 77 67 65 77 71 56 60 63 55 60 66
45 44 43 40 34 34 39 38 34 34 41 44 54 49 49 50 60 70 64 66 66 66 64 65 67 71 76 78 78 78 84 93 97 95 93 91 89 80 61 56 58 54 50
43 42 38 34 29 27 28 31 27 31 40 47 44 53 47 50 46 68 63 64 66 70 65 70 76 78 77 76 73 87 93 86 96 98 98 91 76 72 76 76 60 51 52
39 36 32 29 28 24 22 24 30 43 46 45 48 52 53 53 52 58 60 61 62 64 67 71 74 79 82 83 83 80 84 92 97 97 98 94 72 97 97 83 79 70 70
32 28 30 30 28 28 28 33 42 55 58 57 57 56 74 75 65 70 70 68 72 71 78 77 73 74 75 75 76 75 80 81 97 98 100 86 81 88 95 80 90 79 83
30 32 44 44 40 28 26 42 65 62 62 64 65 70 68 65 68 70 69 68 69 65 69 70 79 85 83 78 84 86 91 94 99 100 98 83 80 87 88 84 84 85 77
35 39 44 45 39 38 39 41 41 68 62 65 62 58 55 64 65 69 67 65 65 58 64 65 77 84 82 76 75 82 92 96 94 83 87 88 89 85 98 94 92 84 81
39 65 38 39 40 45 43 48 48 55 65 62 61 52 51 59 66 67 63 64 61 57 58 62 70 73 75 76 77 81 80 83 88 98 90 93 94 95 95 93 91 91 76
36 38 48 56 57 57 54 54 54 55 59 58 53 55 52 61 62 62 59 68 70 64 58 59 66 67 75 78 87 87 88 90 92 96 99 96 100 96 97 92 94 95 87
42 64 56 49 52 53 53 55 52 57 58 59 60 59 60 64 75 74 71 74 72 65 66 63 65 72 80 83 90 91 90 90 90 92 96 100 100 96 94 96 96 93 81
40 45 64 45 49 51 55 58 56 61 64 63 66 70 72 70 74 69 67 70 69 69 73 72 77 83 83 84 84 88 88 92 89 93 92 93 100 97 94 97 96 92 80
48 49 52 58 55 64 62 56 62 65 64 63 65 60 61 73 68 68 67 72 77 73 76 76 78 78 80 81 84 91 89 90 92 93 93 91 89 94 96 95 94 92 75
59 60 56 54 61 68 72 65 67 71 69 69 66 68 69 74 74 71 74 77 75 77 77 78 83 81 76 81 83 86 91 89 92 94 94 92 89 93 97 94 93 90 79
63 71 60 64 73 70 74 78 75 68 68 72 76 76 73 74 77 75 77 78 76 78 81 84 80 77 80 84 83 82 80 86 89 90 91 92 90 89 94 94 94 90 82
73 75 74 72 74 77 78 75 76 76 76 76 77 77 72 74 72 75 76 76 77 80 79 80 84 80 78 81 84 81 84 89 89 90 90 90 89 90 93 96 94 93 81
67 67 71 74 76 78 78 79 79 77 77 77 77 77 77 75 73 77 76 76 78 79 79 81 78 76 78 80 77 79 83 83 91 92 93 89 90 90 93 96 95 94 84

GFSGL_sfc_rhum_060.txt.gz
RH
52 66 73 77 80 93 92 94 93 94 92 93 93 94 95 96 94 94 93 89 89 90 90 91 85 78 81 74 72 68 68 68 71 65 60 55 58 60 49 58 58 59 61
58 68 81 92 91 95 97 98 94 94 93 91 93 93 93 93 94 90 87 84 86 89 86 80 78 69 70 67 71 72 74 70 71 66 59 62 62 60 61 61 48 36 50
78 84 93 94 95 97 97 95 92 93 94 94 93 92 92 92 90 87 83 86 86 83 81 82 80 74 76 72 68 67 72 54 67 67 64 66 68 65 62 60 56 62 46
80 88 94 96 95 94 93 92 93 90 90 88 87 87 89 88 85 84 83 88 90 86 82 80 76 73 70 68 68 73 65 72 69 69 65 66 71 65 72 68 66 66 63
86 89 93 91 90 89 87 86 86 86 84 83 86 88 87 85 80 86 87 93 87 85 81 76 78 78 75 72 58 68 70 67 64 66 66 64 70 79 81 77 75 70 71
85 86 84 84 80 83 82 82 81 79 78 81 86 87 89 83 96 95 86 85 79 78 78 65 61 64 62 71 77 77 67 64 68 73 71 72 71 74 81 88 81 83 92
75 72 72 71 74 75 70 71 74 79 82 85 89 88 88 85 90 91 92 88 76 69 68 65 54 40 61 55 64 70 75 81 83 75 81 76 81 78 80 90 93 97 95
65 63 63 65 64 64 66 72 76 78 84 85 85 84 82 70 89 86 81 70 68 68 67 63 60 59 58 68 64 64 65 69 66 63 88 82 84 80 88 89 89 83 73
59 60 58 63 67 66 72 77 79 76 79 78 72 66 65 75 75 73 65 74 64 68 55 60 61 61 66 72 73 78 79 76 64 73 76 79 82 81 81 85 87 92 94
58 60 62 63 64 67 69 71 70 67 54 48 49 63 64 69 78 79 65 82 83 84 74 61 68 69 74 75 80 82 84 74 71 73 77 76 87 90 85 76 82 83 95
57 58 60 58 60 60 61 58 54 55 66 75 73 64 63 66 78 70 68 81 84 78 74 72 71 71 73 74 76 82 83 76 81 83 82 85 84 94 93 84 76 77 87
56 54 52 52 45 44 54 54 49 58 66 75 72 79 76 73 75 66 64 65 66 79 75 74 74 70 74 77 80 82 81 82 86 80 80 78 89 85 97 80 78 78 74
52 50 46 42 40 40 47 47 48 55 67 78 74 86 82 81 82 69 64 65 66 78 74 71 70 71 76 79 77 80 84 91 89 90 91 83 81 84 97 99 86 80 76
49 46 42 40 36 35 30 36 55 70 79 78 83 82 86 79 85 79 77 81 70 74 77 79 78 78 81 77 74 74 79 82 96 98 96 89 94 100 99 98 95 90 92
43 38 40 42 40 38 45 52 72 71 80 84 83 82 93 93 84 76 75 78 83 76 83 80 80 78 77 76 74 74 76 79 89 96 95 94 98 100 98 97 99 97 96
38 43 66 65 57 40 46 51 70 68 68 70 68 82 83 68 65 66 68 68 66 69 81 84 89 88 86 80 81 81 80 80 84 90 98 98 100 99 99 99 98 98 97
56 53 66 66 62 60 64 70 80 72 64 68 66 62 59 61 60 67 66 65 66 70 90 87 91 88 85 78 80 80 86 82 81 85 94 97 98 97 96 99 97 96 96
56 67 59 60 62 72 70 73 76 82 88 91 70 65 59 57 63 62 64 63 80 73 80 83 86 84 80 79 79 81 83 85 86 86 93 95 96 97 98 96 97 96 96
51 58 70 76 79 76 75 76 76 77 81 81 77 78 72 63 63 62 60 90 93 84 77 75 82 80 82 82 86 86 87 90 88 90 93 93 94 96 93 97 94 97 97
62 73 70 69 70 72 75 75 72 76 78 82 85 85 85 83 92 88 92 93 93 91 88 81 79 82 85 85 87 87 88 87 89 89 92 93 94 95 98 97 97 98 97
62 80 80 62 67 69 74 76 75 82 84 85 89 93 82 88 90 88 91 92 92 92 91 88 90 88 86 85 84 86 87 90 85 92 92 91 92 94 91 92 96 96 96
79 80 71 75 69 81 77 70 81 83 82 83 88 84 75 92 89 91 89 93 95 93 93 90 89 86 85 86 86 86 90 88 88 91 90 90 91 92 94 92 95 98 98
85 75 70 67 71 82 87 82 86 88 87 88 84 85 88 93 94 92 93 94 94 94 92 89 89 88 83 83 85 89 91 90 89 89 92 92 93 93 94 93 95 98 98
83 85 70 80 88 82 89 92 90 81 85 89 91 91 91 93 94 93 94 94 94 93 91 92 87 83 84 90 85 83 81 82 85 93 95 92 90 91 94 92 93 95 97
87 88 87 85 87 90 91 88 91 91 91 92 91 92 89 89 88 92 93 94 92 90 92 85 86 86 83 83 85 86 90 91 84 81 88 92 92 92 92 92 92 94 97
76 76 82 87 88 90 91 92 91 91 92 92 94 91 90 91 88 90 90 89 92 88 85 86 83 82 84 84 81 82 87 90 92 91 94 93 92 91 91 93 92 95 97

GFSGL_sfc_rhum_066.txt.gz
RH
59 60 62 71 83 92 96 98 98 99 98 98 98 98 98 98 98 98 98 97 94 92 92 89 89 86 90 90 90 89 92 89 85 72 74 75 73 68 62 73 82 84 80
75 78 86 96 96 97 97 98 99 98 98 98 98 98 97 98 98 97 96 92 91 92 90 90 90 80 85 89 94 91 87 88 82 81 72 84 78 73 72 70 59 58 65
87 88 95 94 94 96 96 96 93 98 99 98 97 98 98 98 96 94 91 90 91 92 89 88 84 88 94 87 86 93 91 76 83 90 82 87 89 86 82 78 72 77 63
82 94 96 95 92 88 99 99 98 97 98 98 97 97 96 95 93 91 91 91 89 88 88 87 89 88 92 93 92 95 90 95 94 95 93 90 94 89 89 86 78 88 74
92 96 99 99 98 98 98 98 98 96 96 95 96 96 95 93 91 90 87 88 89 92 91 83 84 85 82 82 76 83 84 88 92 93 92 90 84 93 92 90 90 86 84
98 98 97 98 96 97 97 96 95 94 93 95 97 96 96 88 96 93 87 92 88 84 89 75 74 72 76 77 78 76 80 86 91 95 91 88 84 92 93 92 91 94 95
97 96 94 94 95 95 91 92 91 93 94 96 96 93 92 91 92 93 93 88 88 80 79 75 61 56 76 79 77 76 76 69 87 92 93 89 90 88 91 85 82 83 88
92 91 90 91 92 88 87 89 93 92 93 94 94 94 94 87 96 98 91 84 81 82 80 74 74 76 82 76 82 83 79 77 75 71 79 81 83 78 81 79 84 86 81
91 90 85 85 86 86 90 90 90 91 94 95 93 89 88 87 88 82 76 82 77 73 70 71 76 78 70 70 80 88 88 85 71 73 77 81 83 83 82 85 86 86 90
88 84 79 82 86 86 87 90 88 89 92 92 80 74 75 77 83 79 75 82 78 76 76 71 69 71 69 72 89 94 90 81 81 81 73 68 69 72 84 79 84 95 94
80 77 80 81 82 82 83 90 94 84 85 86 84 84 82 82 80 72 69 78 83 84 81 82 82 70 71 75 74 88 77 76 85 82 82 81 84 76 70 78 75 94 94
78 80 82 82 76 76 84 84 75 77 87 88 91 94 91 88 76 72 70 74 73 85 79 84 84 71 74 73 78 66 68 85 87 88 81 78 85 87 83 88 85 86 88
82 86 86 79 77 70 80 80 77 75 83 89 87 92 93 88 84 71 68 70 73 80 79 74 71 74 77 83 66 66 84 90 93 92 88 81 80 79 82 82 90 84 83
79 75 72 70 65 66 66 71 78 85 83 84 86 91 92 87 86 84 79 87 70 75 82 84 88 88 89 88 81 76 81 86 90 92 89 84 82 85 86 86 94 93 98
63 60 62 64 69 71 71 76 80 86 84 85 86 86 94 94 81 78 75 80 87 83 93 92 92 86 79 76 80 79 80 80 84 86 91 89 85 85 86 83 87 99 98
58 64 73 75 76 62 58 70 78 81 79 79 79 86 84 76 66 66 62 63 61 70 90 93 94 94 92 87 92 88 85 88 85 86 89 89 89 89 88 83 83 91 98
66 67 72 70 73 70 68 70 81 81 70 68 74 76 78 82 74 61 59 61 61 68 91 91 96 97 94 86 88 89 91 90 88 89 90 89 89 88 88 88 88 90 90
70 73 71 75 77 81 86 90 88 88 93 92 78 79 73 67 68 58 61 67 85 78 84 92 95 95 90 83 86 89 88 94 94 88 93 92 92 93 91 88 88 94 91
72 81 88 92 92 92 91 92 93 95 96 96 95 90 80 78 73 66 76 91 92 90 83 81 92 92 91 89 97 97 100 100 95 96 98 95 94 92 91 88 91 92 94
90 94 93 92 93 94 95 95 95 95 96 95 94 92 87 86 92 94 96 96 96 91 90 87 88 88 96 97 99 100 100 98 97 96 98 96 98 93 94 92 92 94 91
94 94 94 94 95 96 96 96 96 96 96 96 97 97 92 88 91 93 96 96 94 92 96 94 95 98 98 99 98 100 99 100 96 97 94 92 94 96 90 91 91 92 91
96 96 95 96 95 96 96 95 96 96 96 96 96 88 84 94 93 96 94 96 97 96 96 97 97 99 99 96 96 100 98 97 98 93 94 93 93 92 92 90 92 92 93
95 95 95 94 95 96 96 96 96 97 96 96 94 96 96 97 97 96 97 98 96 97 95 97 99 96 96 100 100 100 96 94 93 94 94 93 92 92 92 93 92 92 93
94 95 95 96 96 96 97 97 97 96 96 97 97 97 97 97 98 98 98 98 96 99 100 100 98 98 97 98 98 97 92 92 93 93 95 94 92 89 92 91 92 94 94
95 96 96 96 96 97 97 96 97 97 98 98 98 98 97 98 96 98 98 98 100 99 97 98 100 99 97 96 95 95 95 95 91 91 94 94 93 92 92 92 92 93 94
93 94 95 95 96 96 97 98 98 98 98 99 98 98 99 98 99 99 100 100 100 99 98 99 99 95 96 95 92 92 90 91 92 90 94 94 94 92 92 93 93 94 93

GFSGL_sfc_rhum_069.txt.gz
RH
62 67 71 76 78 84 82 89 96 98 97 96 98 98 98 98 99 99 99 99 98 98 96 93 89 87 91 90 91 92 92 92 96 92 89 81 80 77 71 74 78 88 89
63 65 73 75 78 80 84 95 96 95 96 98 98 98 99 98 98 98 99 98 96 96 93 91 91 84 92 91 94 95 93 90 93 96 91 91 86 82 83 85 67 60 75
70 68 71 75 76 78 88 91 94 94 93 97 97 98 98 98 98 98 97 96 94 90 91 92 93 91 93 96 88 88 90 85 95 97 97 93 93 91 90 87 84 85 72
75 77 76 79 83 86 94 96 96 97 99 99 98 98 98 98 97 96 94 94 92 92 91 90 88 92 92 89 91 93 84 86 90 92 92 94 95 91 93 94 80 86 86
77 78 79 84 85 93 96 98 99 99 98 98 98 99 98 97 95 94 92 93 93 93 91 89 86 81 81 78 76 82 81 85 88 88 88 92 85 91 89 89 94 86 80
83 85 91 98 98 97 98 99 98 98 98 98 98 98 98 95 99 95 90 89 88 91 90 76 73 74 79 79 74 74 78 85 86 93 92 87 87 93 95 96 94 90 87
89 97 98 98 98 99 98 98 98 98 98 98 98 98 97 96 96 94 93 90 88 82 72 70 58 66 81 80 73 69 68 66 86 90 95 94 94 91 90 93 93 92 87
97 97 98 98 98 97 97 97 98 98 98 98 98 96 94 92 96 96 89 76 76 75 70 73 72 81 78 76 78 82 82 82 81 79 92 92 93 83 82 82 90 91 83
97 97 95 95 96 95 96 97 96 97 98 96 94 93 94 97 94 86 76 75 69 70 71 74 74 77 68 68 80 88 89 83 68 66 71 71 69 72 71 77 91 95 91
95 93 91 90 91 93 94 94 93 92 94 91 87 89 92 89 86 82 75 78 76 77 73 68 69 72 68 73 88 91 92 82 86 87 80 78 77 82 80 81 84 96 93
90 88 88 87 88 88 90 91 91 94 88 89 87 83 81 80 79 74 69 76 77 78 76 77 77 69 71 73 74 80 76 81 80 84 81 80 81 81 79 81 79 94 96
84 84 86 86 85 86 92 91 90 92 93 89 91 89 86 81 77 72 69 70 71 83 75 74 78 70 73 67 75 63 67 85 96 96 91 83 84 81 78 79 81 84 78
86 86 86 85 87 85 85 85 91 93 90 88 84 90 91 88 86 72 72 71 71 78 77 72 69 73 70 77 62 67 81 94 95 95 91 86 84 80 78 83 82 81 80
89 86 83 79 78 79 76 77 87 92 90 86 88 91 91 86 85 83 80 81 69 74 80 80 84 86 86 84 79 74 81 87 88 90 88 88 84 85 86 83 88 85 90
79 72 72 74 74 78 78 76 81 83 82 85 87 87 94 93 84 82 82 88 93 87 92 90 86 80 76 76 78 79 79 76 82 86 89 87 85 84 86 84 86 87 92
74 73 79 76 73 70 72 78 84 86 85 83 84 87 86 79 71 68 71 75 72 75 89 92 95 95 92 83 86 83 81 81 80 83 88 86 88 87 88 84 84 89 91
76 74 76 70 68 68 69 73 85 80 76 78 78 78 76 75 77 78 74 66 67 69 92 93 97 97 94 80 81 83 87 84 81 84 86 90 91 88 91 89 88 88 88
71 76 73 72 73 78 80 83 83 87 93 93 84 83 85 85 72 61 62 68 86 81 88 91 94 95 86 80 78 79 81 88 90 86 91 96 99 95 93 89 89 93 90
78 84 89 93 94 94 94 94 93 94 95 96 96 95 88 92 92 92 93 96 96 93 84 82 91 89 86 81 92 95 97 97 95 98 97 99 100 96 94 92 92 91 90
92 95 95 95 96 96 96 96 96 96 96 97 97 96 95 95 97 97 97 97 97 93 92 86 85 85 90 90 97 98 98 97 98 99 99 100 99 100 97 96 94 94 90
95 95 96 95 95 95 96 95 96 96 96 96 97 97 96 96 96 96 96 97 96 96 96 94 94 94 95 96 92 96 97 100 99 98 100 95 99 98 94 94 93 91 88
94 94 94 95 94 94 94 94 95 96 96 95 96 95 95 97 96 96 96 97 97 96 96 95 94 94 92 91 95 100 100 100 100 99 97 95 94 93 93 93 93 92 91
94 94 94 94 94 94 95 95 95 96 96 96 96 96 96 97 97 96 96 97 96 97 96 94 97 94 92 98 100 99 100 97 95 95 96 94 93 93 93 94 92 93 92
94 94 93 94 95 94 96 96 96 95 95 96 97 96 96 97 98 97 98 98 98 99 97 98 95 93 94 99 99 98 96 98 95 95 96 95 93 92 93 92 92 92 93
94 94 94 94 95 96 96 95 96 96 98 98 99 99 97 98 97 99 99 99 100 100 98 98 100 100 98 99 98 96 97 97 94 93 95 95 94 94 94 93 93 93 92
90 91 93 93 95 95 96 97 98 99 99 99 100 100 100 100 100 100 100 100 100 100 99 99 99 97 97 96 94 97 99 94 95 94 95 95 95 94 94 94 93 94 92

GFSGL_sfc_rhum_072.txt.gz
RH
80 81 80 83 82 83 83 86 92 92 92 91 91 94 95 96 98 99 99 99 99 99 99 97 95 91 93 92 91 90 93 91 97 90 83 79 79 78 76 77 76 78 79
78 80 81 80 79 82 82 81 83 90 92 89 92 93 96 97 99 99 99 98 98 99 98 96 94 85 90 91 92 93 93 92 93 95 86 84 82 82 83 82 66 60 74
75 76 79 79 77 76 78 80 86 87 90 92 95 98 98 98 99 99 98 98 98 98 95 93 92 91 95 95 95 95 90 84 89 92 86 91 86 85 82 77 77 80 64
75 74 76 78 75 77 84 88 90 91 93 94 97 98 99 99 99 99 98 98 98 96 94 92 91 90 92 94 89 92 79 80 77 80 80 83 87 78 83 80 66 75 74
76 75 75 75 73 82 92 92 92 92 92 94 98 99 99 99 98 98 98 98 97 97 96 91 92 91 90 86 79 77 71 73 71 71 69 78 66 72 75 81 84 82 80
79 79 76 78 78 84 92 92 93 96 97 98 99 98 99 99 100 99 96 96 94 94 90 85 82 82 80 80 76 74 66 68 66 70 74 72 76 83 87 91 91 87 82
82 80 82 83 85 90 94 98 98 98 99 99 99 98 98 99 100 98 97 92 95 88 84 74 67 75 82 70 68 66 69 70 84 80 84 84 89 86 89 84 82 85 88
88 87 86 92 96 99 99 99 99 99 99 98 99 98 98 97 99 97 93 87 87 81 76 70 76 73 71 65 70 76 77 75 77 75 83 84 88 88 88 74 78 80 75
90 95 96 97 98 98 99 99 98 98 98 98 98 98 98 98 95 92 82 75 72 69 68 68 66 70 70 70 76 79 78 73 61 63 67 66 67 70 74 84 87 92 89
98 97 97 97 98 98 98 98 97 96 98 97 98 97 97 97 93 86 75 74 73 72 67 65 72 74 75 80 83 81 78 73 72 65 66 67 69 73 73 74 87 94 90
96 95 96 95 96 94 96 96 96 95 94 96 96 94 92 91 90 83 76 72 73 72 66 70 75 72 75 75 74 77 73 70 69 70 68 71 70 69 67 66 70 83 91
93 94 95 94 92 91 96 97 94 94 95 96 95 93 88 83 80 75 71 71 69 75 71 74 79 73 76 72 72 69 70 76 81 84 82 77 74 74 71 70 74 77 77
91 94 95 94 94 92 95 97 96 94 94 94 91 90 88 82 79 73 71 71 72 78 79 74 73 75 73 73 65 73 78 82 83 86 82 74 74 73 69 76 74 75 77
93 94 93 95 93 91 92 93 94 94 92 89 88 86 86 81 82 80 80 76 70 74 80 80 86 85 84 79 76 75 75 79 80 84 82 80 75 79 80 74 85 84 87
88 84 88 86 85 88 89 89 92 90 86 86 86 85 92 91 82 81 79 86 91 89 94 92 88 81 77 76 78 73 74 73 78 80 83 80 77 77 76 78 82 84 89
87 84 89 90 87 84 86 91 91 89 88 85 82 87 87 81 75 76 76 80 81 87 93 94 93 91 86 82 86 82 80 80 78 81 83 78 79 82 79 77 76 81 88
89 84 83 82 80 80 81 85 93 94 95 96 96 96 94 93 88 79 78 78 72 79 90 89 92 92 89 80 81 82 85 82 79 80 80 80 82 82 85 82 81 81 86
88 90 91 94 94 93 95 95 95 95 96 96 94 92 87 81 78 68 67 70 89 85 84 88 91 90 85 80 80 79 78 82 84 81 84 88 92 90 89 83 83 92 86
89 91 93 95 96 96 96 96 96 95 95 95 96 96 96 94 94 94 94 96 96 94 93 93 94 93 92 90 93 93 95 93 91 92 91 91 96 93 92 88 89 92 91
94 96 96 96 96 96 96 96 96 96 96 96 96 96 96 95 96 97 97 97 96 95 95 93 93 93 94 93 96 96 95 93 92 92 94 97 99 98 97 96 95 95 87
95 94 95 94 94 95 95 95 95 95 95 95 96 97 96 96 96 96 96 96 96 95 96 94 95 95 94 94 91 91 92 96 92 92 95 95 99 100 93 93 93 90 86
94 94 94 94 94 95 95 94 95 95 95 94 96 95 95 97 96 96 96 96 97 95 95 95 94 92 91 89 90 97 98 99 97 95 98 97 95 93 93 93 92 92 89
93 93 93 93 93 93 94 93 94 95 95 96 95 95 95 96 96 95 96 97 95 96 95 94 96 91 87 93 94 96 100 97 95 96 96 95 94 93 93 94 92 92 91
91 92 91 93 94 93 94 96 95 94 95 96 97 98 98 98 100 100 100 99 98 99 98 99 95 95 94 98 98 97 94 97 95 94 97 96 93 91 94 93 92 92 93
92 93 94 94 95 96 95 95 96 97 98 99 100 100 100 100 98 100 100 100 99 100 98 99 100 99 99 98 97 96 96 98 96 93 95 95 95 95 94 93 93 92 92
90 92 94 94 95 95 96 98 99 99 100 100 100 100 100 100 100 100 100 100 100 100 98 98 98 96 95 93 93 97 98 96 93 94 96 93 95 94 94 94 92 93 90

GFSGL_sfc_rhum_075.txt.gz
RH
70 72 73 74 74 74 75 75 73 73 71 76 76 76 75 77 83 90 91 90 96 96 96 93 97 95 95 91 85 80 73 75 82 73 68 67 67 60 55 53 50 50 48
75 75 79 77 75 78 76 74 73 71 71 70 69 70 76 90 96 96 96 95 98 98 98 98 98 93 92 88 87 85 76 82 84 89 85 65 73 60 57 56 41 30 34
72 77 79 79 77 75 72 70 68 70 72 72 72 79 78 80 88 92 97 98 98 97 97 98 98 96 95 88 84 83 84 80 88 90 89 64 60 52 49 40 39 42 36
73 75 78 78 77 75 72 72 74 72 74 74 76 75 80 83 92 95 96 98 98 97 97 97 96 94 91 87 90 90 87 87 75 76 72 58 52 46 39 38 39 43 45
72 72 75 75 74 71 72 72 72 73 72 70 78 92 95 96 98 98 96 97 97 97 97 95 95 92 95 91 85 78 76 75 70 72 60 49 40 32 38 43 54 46 45
71 72 69 70 70 74 74 76 74 76 74 75 80 89 97 98 100 100 99 98 97 97 98 97 96 94 91 88 82 74 65 66 63 54 43 35 34 48 51 58 56 54 47
70 68 67 67 68 71 69 71 76 80 84 89 90 95 97 97 100 100 100 97 97 94 93 88 82 82 83 68 73 70 71 69 74 44 44 45 53 53 62 59 56 62 58
69 67 67 69 69 67 72 76 84 90 94 98 98 98 98 99 100 100 99 95 93 91 87 85 86 80 70 61 58 60 60 60 60 53 55 51 57 56 58 54 58 59 54
72 72 69 71 73 87 91 96 98 98 99 98 98 99 98 98 99 97 92 90 88 87 85 79 71 71 80 66 58 61 56 59 59 63 60 60 62 66 66 60 61 60 70
74 74 75 82 97 98 98 98 98 98 99 99 99 98 99 98 95 93 89 88 89 84 75 75 76 71 80 74 67 59 55 52 51 45 46 47 53 53 64 55 58 72 64
87 92 93 91 96 96 98 98 98 97 97 98 98 97 96 95 95 91 89 88 85 77 71 70 73 78 79 74 66 57 59 52 61 51 49 49 50 52 53 50 48 58 68
90 94 96 96 97 97 97 96 94 95 97 97 97 97 96 95 92 89 86 82 74 70 62 64 73 77 77 72 66 73 70 66 67 66 63 59 55 55 55 52 53 54 53
95 97 97 96 95 94 95 97 97 94 96 97 94 95 94 89 89 85 80 76 73 71 69 68 74 76 73 70 72 72 70 68 69 70 64 55 52 53 52 60 57 55 59
97 96 95 96 97 94 93 93 94 96 95 93 92 92 93 90 86 76 77 73 70 69 75 72 79 78 71 68 70 68 66 69 68 69 68 62 61 64 65 60 65 64 68
91 90 92 90 90 93 95 95 96 97 92 91 91 89 94 95 86 82 78 78 75 78 82 78 76 73 74 72 71 66 64 61 64 67 70 66 62 60 64 64 66 64 70
90 89 92 92 92 90 91 96 96 93 93 93 92 93 93 84 87 90 92 90 85 83 81 85 88 85 76 69 71 68 68 70 66 69 74 70 68 66 65 64 62 66 68
88 88 88 86 87 88 88 88 93 97 97 97 96 96 94 95 95 94 94 89 86 80 82 82 86 84 78 64 66 68 75 78 79 76 78 76 72 68 72 69 69 68 69
90 93 90 91 89 89 89 92 93 93 95 96 96 93 94 93 92 86 76 69 78 77 76 80 82 80 74 71 72 73 72 75 76 76 80 80 80 76 76 71 68 74 69
94 94 94 95 96 96 94 95 95 95 92 90 91 92 92 92 90 87 82 81 81 78 74 73 78 74 74 72 80 82 86 84 84 87 84 84 84 77 77 72 72 76 76
92 96 95 95 96 95 95 94 91 90 89 88 88 89 85 80 89 91 89 89 85 78 79 73 73 74 80 80 84 86 86 85 84 80 80 81 82 81 81 79 79 80 71
94 94 94 93 93 91 90 89 87 86 86 87 90 92 89 83 86 85 82 86 84 82 85 80 83 84 82 81 76 80 78 83 78 78 77 76 82 85 77 78 79 75 72
93 93 92 92 91 91 89 84 85 85 85 84 87 87 87 87 84 84 85 89 90 85 83 84 81 79 78 78 79 83 81 83 80 78 80 79 80 79 78 79 80 80 76
91 90 87 88 86 86 88 86 88 88 87 87 84 85 85 88 88 85 88 89 84 86 83 79 81 78 74 78 79 78 81 78 77 80 84 83 79 80 82 82 80 81 79
87 89 86 91 93 88 90 91 88 84 84 86 87 86 86 88 90 90 90 88 85 85 84 83 78 77 77 80 77 75 71 75 77 79 81 84 82 78 82 81 80 83 83
90 90 90 87 87 88 88 86 88 88 88 89 90 89 86 88 86 89 88 85 84 84 81 83 84 79 79 82 81 80 80 85 84 83 84 84 85 85 85 84 84 83 82
81 81 84 84 85 86 86 87 88 88 89 91 91 91 89 86 84 86 85 83 84 82 82 81 80 80 81 76 72 78 83 84 84 83 88 84 86 85 84 86 84 85 82

GFSGL_sfc_rhum_078.txt.gz
RH
53 57 58 58 60 61 62 63 61 61 57 55 55 55 54 53 52 56 58 57 61 72 85 85 92 93 93 92 94 88 87 83 83 77 55 56 66 59 53 55 50 48 45
53 57 62 61 57 64 66 65 66 62 58 54 53 51 51 52 53 56 61 74 86 88 89 96 94 98 97 96 94 87 83 76 79 78 72 63 64 76 71 57 45 32 32
52 58 63 66 62 60 60 60 58 57 55 53 52 54 52 54 52 56 72 84 81 69 84 96 95 98 97 96 96 92 84 77 76 68 81 76 80 73 67 55 42 35 25
54 56 62 64 64 61 58 57 58 55 54 53 55 56 57 54 54 65 70 79 76 80 88 96 95 96 94 95 94 90 86 86 88 80 77 76 64 66 60 42 32 29 30
56 55 58 60 58 58 60 59 58 58 54 53 60 59 60 59 61 73 78 79 84 87 94 95 94 92 94 93 92 94 92 90 86 75 70 64 65 62 49 30 34 34 35
58 58 55 56 57 58 58 61 60 61 58 57 58 61 64 61 91 100 88 84 91 94 97 98 98 98 98 97 96 94 89 82 76 68 65 63 62 45 36 38 38 39 42
57 55 56 57 58 59 56 57 60 61 63 63 64 62 62 62 100 100 100 85 93 95 96 98 97 93 93 86 86 81 78 78 79 58 60 50 44 39 45 44 44 46 46
53 52 54 56 57 56 58 59 61 62 66 68 67 63 63 71 100 100 100 98 99 97 96 94 92 88 79 74 73 74 68 58 54 50 46 48 45 43 46 42 43 45 44
50 51 50 53 55 56 58 62 61 66 72 72 81 86 94 99 100 100 99 97 96 95 92 91 89 90 92 88 83 71 64 66 67 66 65 63 61 62 60 46 53 50 62
48 46 47 51 55 58 60 63 84 83 93 98 99 99 100 99 99 98 94 93 95 95 91 95 94 91 95 88 75 66 67 56 49 46 52 52 55 53 65 50 43 58 54
44 49 53 55 64 72 82 90 96 97 98 98 98 98 97 97 97 95 93 92 92 91 91 93 94 94 92 79 69 64 60 52 60 40 37 37 38 40 38 41 39 44 54
70 75 75 76 89 91 96 97 96 97 97 98 98 97 97 97 95 93 89 88 89 90 92 92 94 91 81 70 72 73 70 63 60 56 51 45 42 41 39 40 41 43 41
84 91 94 94 96 96 97 97 97 96 97 97 96 96 96 96 96 94 93 93 92 92 94 92 92 81 73 77 77 73 67 62 67 72 60 46 40 39 42 50 53 47 48
94 96 95 96 96 94 92 92 95 97 97 95 94 94 94 93 93 93 92 91 92 92 94 88 83 75 73 73 70 71 70 67 64 62 60 52 49 58 59 53 61 61 60
92 93 93 92 93 95 95 93 95 93 90 91 91 90 94 95 94 95 94 93 92 93 92 84 76 72 74 76 70 61 59 57 60 61 64 61 59 57 61 60 62 61 63
92 92 94 94 91 91 92 95 96 95 95 93 90 90 94 93 95 95 95 94 90 91 89 92 93 90 82 74 69 63 62 64 59 65 73 72 71 70 67 61 58 61 63
93 90 90 88 88 89 90 90 96 96 95 95 96 96 94 95 95 94 94 92 92 94 91 90 91 85 76 59 62 64 69 77 71 68 70 71 72 70 73 69 67 64 63
98 97 95 93 93 95 94 94 92 90 93 96 96 94 95 94 93 93 93 92 91 87 85 85 84 78 69 64 65 66 67 70 70 70 73 76 79 77 78 72 68 72 62
94 94 96 96 96 95 93 93 93 92 93 93 93 91 92 93 94 92 90 84 77 74 68 67 74 69 70 65 80 78 81 78 78 80 76 76 82 76 75 67 65 66 66
94 96 96 96 96 96 96 95 94 94 94 94 90 89 88 91 93 91 86 85 82 76 73 69 70 72 76 73 79 81 78 77 76 74 78 80 82 80 78 74 72 73 63
94 94 94 93 94 94 94 93 91 91 92 91 92 93 89 85 83 84 81 83 80 79 81 73 78 79 74 73 67 74 73 78 72 72 73 72 79 80 71 72 74 69 66
90 91 92 93 92 93 91 90 90 89 88 87 87 80 76 82 78 78 79 84 86 80 76 76 73 70 68 69 71 76 74 76 74 72 75 75 73 72 73 75 74 74 74
90 91 88 88 88 88 88 85 86 86 85 84 78 79 79 83 83 79 81 83 76 77 74 71 74 70 66 70 71 70 74 72 72 74 77 77 74 74 79 79 76 76 75
88 90 85 88 89 86 87 87 82 76 77 80 82 80 79 80 82 80 81 80 76 76 75 76 70 68 69 73 72 69 63 68 71 72 74 78 75 72 76 76 75 77 78
80 81 82 81 81 82 82 78 80 80 79 79 80 79 73 75 73 78 78 76 75 76 72 73 73 70 69 73 73 72 70 73 76 75 77 78 79 79 78 77 78 76 77
71 73 76 77 78 79 79 80 80 79 80 80 79 79 78 74 74 77 75 72 74 73 71 72 71 70 72 69 66 72 77 79 81 78 82 80 81 79 78 80 78 80 78

GFSGL_sfc_rhum_081.txt.gz
RH
48 55 60 63 65 66 65 69 67 66 62 57 59 62 60 59 59 60 61 60 63 66 68 69 72 76 85 90 89 91 94 96 98 82 71 62 66 60 59 58 58 55 59
46 51 58 59 59 65 65 64 67 65 62 58 57 58 57 55 58 60 61 58 60 61 61 68 77 85 89 87 94 95 97 94 96 94 76 65 66 63 66 61 52 46 54
43 50 58 61 58 59 61 61 62 62 60 58 55 56 55 56 56 57 57 58 59 59 62 68 82 82 89 94 96 97 97 94 95 94 86 76 75 73 69 67 70 68 40
44 47 54 60 59 57 58 59 61 60 60 58 58 56 56 53 52 52 52 57 59 59 69 74 76 75 84 93 95 95 96 97 96 93 96 85 81 74 72 75 73 50 44
47 46 51 57 56 55 57 57 58 60 58 56 57 57 57 56 52 56 54 57 58 68 74 77 86 85 94 93 95 96 98 98 98 97 96 95 91 81 70 63 60 54 53
51 52 48 52 55 58 58 59 59 59 57 56 57 57 59 53 69 79 71 59 64 70 85 90 94 99 99 100 98 99 95 96 97 97 96 91 84 73 66 60 59 58 54
49 49 49 50 54 57 55 55 58 61 61 61 60 57 58 59 81 86 88 70 82 78 87 89 97 99 99 98 96 92 94 94 94 90 91 85 78 69 58 62 60 59 55
45 46 47 50 51 52 54 56 60 62 65 64 64 62 61 58 85 92 100 88 86 83 93 92 94 97 94 94 91 89 89 90 90 88 92 86 72 64 58 54 51 46 47
43 45 44 46 50 51 55 59 59 61 65 67 64 66 65 64 100 100 99 99 100 99 98 97 96 95 93 88 88 94 96 97 94 93 86 74 67 64 60 44 56 57 72
40 42 41 44 49 54 56 58 59 63 67 71 77 93 99 90 100 100 100 99 99 98 98 98 95 94 100 94 91 90 94 93 76 60 62 52 50 53 61 50 44 58 58
30 37 42 44 51 51 54 57 62 78 94 97 97 97 97 98 99 98 97 98 97 97 97 97 98 98 96 94 92 95 92 69 67 64 62 56 47 44 50 50 44 48 58
56 40 45 45 48 59 62 86 90 96 98 98 98 98 98 98 95 94 94 94 93 92 96 95 96 94 93 94 95 94 87 83 76 73 59 46 42 41 39 38 40 43 41
78 85 88 91 92 93 95 96 97 97 98 98 98 97 97 97 96 94 93 93 92 92 92 93 94 93 94 93 92 92 82 78 77 82 71 52 44 41 41 50 52 48 50
94 95 94 95 95 94 95 96 98 99 98 97 96 97 97 96 96 93 93 92 91 92 94 94 96 96 95 92 91 90 84 75 71 66 69 61 52 57 60 55 61 63 67
93 93 95 94 94 95 96 97 98 98 96 95 95 94 97 98 96 92 90 92 92 92 94 94 92 91 91 91 91 85 74 69 70 66 73 70 66 67 70 69 70 69 76
93 94 97 96 95 93 92 95 96 97 96 94 93 92 96 93 92 92 94 95 95 96 93 94 95 95 94 93 91 87 72 70 72 71 75 73 73 74 71 67 64 68 74
93 93 94 94 92 92 89 87 93 96 96 95 96 96 96 96 97 96 95 95 95 95 92 93 95 95 93 88 86 80 82 80 66 68 77 74 76 75 77 73 71 72 74
100 98 97 97 96 94 93 94 94 94 96 96 97 96 96 96 95 94 94 85 86 85 83 84 85 81 74 75 71 72 73 75 79 72 72 76 79 76 78 73 71 80 76
91 94 96 96 97 96 95 95 94 93 94 95 95 95 95 95 95 96 94 88 83 80 70 73 78 75 74 75 81 79 78 79 76 81 78 80 84 74 75 72 73 80 81
95 95 94 95 96 96 95 94 94 94 95 94 94 94 95 94 95 96 95 94 88 81 83 72 72 73 76 78 80 82 79 74 71 69 74 75 77 76 77 80 79 82 74
93 93 94 94 94 95 94 94 94 93 94 94 95 96 95 93 94 92 91 91 84 81 84 79 78 78 73 71 64 71 68 74 68 69 70 71 78 78 72 73 76 77 75
92 92 90 91 92 92 91 90 93 93 91 92 93 92 89 89 83 80 81 86 87 80 75 75 71 67 67 67 69 75 71 73 72 72 74 72 69 70 71 73 74 77 71
89 89 86 85 86 90 93 91 92 92 91 91 88 86 82 84 83 78 81 81 75 78 73 71 73 70 68 73 71 69 71 70 71 74 76 75 71 72 76 76 75 78 79
85 88 81 84 86 85 88 88 82 76 77 79 80 78 76 78 80 78 80 78 75 76 76 75 69 67 68 72 71 70 63 71 71 72 73 77 75 72 75 75 74 79 79
75 76 77 76 77 79 78 75 77 76 77 78 79 77 72 74 73 78 77 75 74 75 71 71 72 68 67 70 70 68 72 78 74 76 77 76 79 80 78 76 80 77 82
68 70 73 75 77 78 78 79 79 77 78 79 79 79 77 74 73 75 74 74 74 72 69 71 69 68 69 66 64 76 76 77 79 78 81 80 82 80 79 82 80 81 78

GFSGL_sfc_rhum_084.txt.gz
RH
73 74 72 74 76 76 74 74 72 68 68 65 68 69 69 68 67 69 68 66 72 77 81 82 83 86 88 90 90 92 95 94 94 85 90 88 82 73 72 75 77 77 78
62 73 76 75 73 77 77 75 74 69 65 62 60 62 63 65 66 70 67 61 65 73 76 82 83 81 86 86 95 94 96 91 97 97 95 96 87 71 70 72 70 60 71
55 63 74 76 75 75 74 74 74 71 66 62 59 61 61 63 64 64 64 65 67 65 68 75 76 79 86 91 93 96 96 97 96 97 95 96 94 89 79 77 78 77 47
52 58 66 70 72 72 71 71 73 75 73 71 68 66 63 64 64 62 61 67 68 68 70 72 72 76 84 91 95 96 96 98 97 98 97 97 96 93 90 87 86 78 65
54 52 59 64 65 66 69 70 69 70 70 69 70 69 66 65 62 65 62 66 69 70 70 70 72 77 92 90 91 93 96 98 98 98 100 99 98 98 93 93 93 85 73
58 56 52 58 62 66 67 68 70 70 69 69 69 70 71 62 72 79 71 66 65 67 70 70 74 95 92 95 100 100 96 97 98 98 96 97 96 94 97 94 90 86 82
57 56 54 54 57 65 65 64 67 73 74 72 71 69 70 69 80 82 82 65 69 72 74 75 92 98 100 99 100 100 99 98 100 94 96 98 97 94 94 96 95 92 89
50 53 55 57 56 58 64 66 68 69 72 75 74 72 71 66 82 85 86 76 73 75 88 92 93 99 99 99 99 99 97 96 96 94 96 97 96 95 91 91 96 91 80
46 49 51 55 58 59 63 67 68 70 71 72 72 74 73 72 85 88 90 84 81 96 99 99 99 100 99 97 97 98 98 98 99 96 96 98 97 96 96 99 98 95 95
44 45 47 52 56 60 62 66 68 66 70 71 76 92 100 85 100 100 97 99 99 99 98 98 98 97 97 96 96 94 96 98 96 96 95 90 90 82 78 84 88 95 93
68 70 58 51 54 57 64 67 71 74 92 99 99 99 99 99 99 100 99 99 98 98 98 98 98 98 96 97 95 94 94 94 95 94 93 94 94 93 88 72 64 81 88
79 80 82 87 82 73 77 94 97 98 98 99 99 99 98 99 97 97 97 96 94 94 96 96 97 94 93 92 92 93 93 95 96 96 94 90 88 88 69 68 66 64 60
86 87 90 89 91 92 98 99 99 99 99 99 98 98 98 98 98 98 96 95 94 94 93 95 94 92 92 92 92 92 94 93 94 96 97 96 83 68 63 71 69 63 67
90 91 88 91 93 93 93 95 98 99 99 98 98 97 97 96 96 97 97 94 96 94 95 94 94 93 93 96 96 95 95 96 96 96 97 97 96 96 93 84 85 85 87
89 90 93 92 91 90 94 97 97 98 98 95 96 95 94 96 98 97 96 95 94 95 96 96 96 96 96 96 97 96 96 96 95 96 97 96 95 90 84 88 87 87 89
91 92 94 94 94 91 90 92 96 96 96 94 93 92 96 96 97 96 96 95 96 96 96 96 97 98 98 97 96 96 96 96 95 90 90 85 85 85 84 79 78 84 86
95 96 94 94 94 93 92 90 93 96 96 96 94 96 95 96 96 96 96 97 99 95 95 96 96 96 97 96 96 95 93 85 82 86 87 90 88 83 85 84 84 83 83
93 95 95 96 96 96 93 95 95 95 96 96 96 95 96 96 96 96 95 89 94 93 93 95 96 96 95 92 86 88 86 88 86 89 94 95 96 93 90 84 83 88 85
94 96 96 95 96 95 94 94 94 95 95 95 95 94 96 95 94 94 91 94 95 94 94 93 95 94 91 87 91 91 93 94 96 96 93 87 94 94 94 88 86 87 85
92 96 96 96 96 95 96 95 95 96 96 96 96 96 95 90 93 95 95 95 95 95 94 92 89 88 89 87 91 91 90 91 91 88 94 95 95 95 95 94 95 92 84
94 94 95 94 94 94 94 94 94 93 94 94 95 96 95 93 95 95 94 95 94 90 92 87 86 86 84 85 84 91 90 94 93 94 94 95 95 95 93 94 93 89 83
91 92 91 93 93 93 94 94 94 94 94 93 95 94 94 94 94 92 90 91 90 87 87 90 86 88 88 88 88 93 93 93 95 95 95 94 94 93 94 95 95 93 86
91 92 92 92 90 90 93 93 93 94 93 93 91 89 88 92 92 91 93 93 89 90 86 87 88 89 86 93 93 90 92 94 93 92 96 96 95 95 96 95 92 91 90
86 87 82 85 86 87 90 89 86 83 85 87 89 89 89 91 91 90 91 90 90 90 90 94 89 85 88 91 90 90 86 92 92 93 94 96 94 90 95 92 90 90 90
82 83 84 85 86 87 87 86 88 88 89 90 90 90 88 88 90 90 92 89 90 92 90 91 92 86 85 85 89 93 90 98 95 95 97 95 96 96 93 92 93 93 89
79 81 84 86 87 88 89 89 89 89 91 91 90 91 90 89 90 90 89 90 93 93 89 92 87 84 84 90 87 96 93 92 96 94 98 96 98 95 94 94 90 89 88

GFSGL_sfc_rhum_087.txt.gz
RH
76 79 79 83 77 80 78 74 73 72 69 65 74 77 74 72 73 75 73 75 80 77 81 85 82 80 88 92 91 89 90 92 92 77 93 94 90 86 78 83 80 82 83
78 76 76 76 81 80 80 78 74 75 70 68 72 72 73 71 71 74 74 67 76 80 78 85 84 88 88 85 88 86 87 85 89 89 89 96 94 90 84 82 78 73 73
78 79 80 74 76 83 78 76 76 72 72 70 68 72 69 69 70 71 71 74 72 73 75 86 83 87 89 88 91 90 90 91 94 92 91 97 95 96 92 81 83 73 70
76 81 83 77 74 76 81 77 77 76 73 71 68 68 67 65 64 67 69 74 74 71 72 74 77 84 85 87 90 91 91 95 97 97 97 96 98 95 91 86 86 86 74
62 74 83 80 78 77 75 79 80 79 77 73 70 68 64 61 57 63 65 69 72 73 71 71 74 75 83 84 86 91 94 96 97 98 97 98 98 99 97 92 89 89 93
60 60 69 79 79 80 79 79 79 80 83 77 75 73 70 61 70 80 70 67 66 68 74 75 76 86 87 90 94 92 94 94 96 97 96 97 95 94 91 95 96 98 99
64 60 58 70 75 76 77 78 79 80 79 85 83 78 78 75 84 85 87 70 73 73 75 76 79 81 91 86 99 100 100 99 100 94 96 95 95 97 96 98 99 98 99
73 66 62 60 70 74 73 74 78 81 80 80 82 82 81 77 89 87 89 79 75 75 79 81 82 85 94 94 99 99 98 98 98 97 98 99 99 98 96 96 97 100 99
83 84 78 70 68 69 74 76 74 76 80 81 80 80 81 79 91 92 92 82 80 79 93 98 95 96 100 100 98 98 98 98 98 97 98 97 98 98 96 92 98 97 99
83 83 85 88 83 75 74 72 76 76 74 74 80 84 89 83 100 98 93 85 89 100 99 99 99 99 99 99 98 96 97 98 97 96 95 95 96 97 99 99 99 98 98
80 82 84 86 89 94 92 81 83 84 86 90 97 99 98 99 99 100 100 97 97 99 99 98 99 98 97 96 94 93 95 95 97 95 95 96 95 93 92 95 96 94 95
81 83 83 86 85 88 95 97 98 98 99 99 99 99 99 99 98 98 98 98 97 97 98 98 98 96 94 94 92 95 95 95 94 95 95 96 96 96 94 82 75 69 68
82 86 85 84 85 87 94 96 96 98 99 99 99 98 98 98 98 96 96 96 96 96 96 97 97 95 94 95 95 94 94 94 95 95 95 96 95 95 95 96 95 92 90
87 89 86 88 87 87 87 91 95 97 98 97 96 96 97 96 97 94 93 93 91 92 95 96 96 95 95 96 96 96 96 96 96 95 95 96 96 96 96 91 90 87 84
87 89 91 90 86 89 93 95 94 98 98 95 96 95 96 97 98 93 89 92 94 94 93 95 96 96 95 96 96 96 96 96 94 95 95 95 94 91 88 83 81 82 86
92 92 94 91 91 89 88 92 96 96 96 96 94 91 96 96 96 95 96 96 96 96 94 96 97 96 96 96 96 95 95 95 94 92 93 91 89 86 83 80 78 83 86
91 91 89 88 88 89 92 92 93 94 94 97 98 97 96 97 95 94 95 96 96 92 95 96 96 96 96 94 94 94 95 90 80 84 86 89 88 87 88 85 85 84 83
93 92 93 94 94 94 92 94 94 93 93 95 96 97 95 95 94 94 93 89 93 92 94 94 95 95 94 93 93 92 87 87 89 89 92 91 93 89 91 88 85 91 85
96 95 94 94 95 94 94 95 95 95 95 96 95 94 94 89 89 90 88 93 94 94 94 93 95 94 94 90 92 90 90 89 89 90 92 91 94 89 91 90 91 93 92
95 94 90 92 92 93 93 93 92 92 94 94 94 95 94 88 93 94 95 95 95 94 94 91 87 87 90 89 92 91 91 90 91 90 95 94 95 95 96 96 95 96 93
95 95 94 93 93 93 93 93 93 92 93 94 95 95 95 92 94 94 94 95 94 93 93 92 92 93 90 91 89 91 91 95 93 93 92 92 98 96 95 97 98 97 90
94 95 94 94 92 93 94 92 93 92 92 92 94 94 93 94 93 92 92 94 94 93 92 93 92 92 93 95 93 95 97 98 96 97 97 97 97 98 98 98 99 100 98
93 94 94 93 93 93 94 93 94 94 93 93 91 92 92 94 94 94 95 95 93 93 93 91 91 92 91 91 91 95 96 99 100 100 100 100 99 99 100 100 100 99 98
93 94 89 90 90 90 93 94 93 93 94 96 96 95 95 96 96 96 96 95 95 96 96 95 92 88 88 93 97 96 96 99 98 99 99 100 100 100 100 99 98 99 98
90 91 92 93 93 94 94 94 95 95 95 96 95 95 96 95 96 94 96 93 94 96 94 94 96 96 97 98 95 94 96 99 97 97 99 99 100 100 100 98 98 97 98
88 89 92 92 93 93 95 96 97 95 97 97 96 99 98 96 95 100 98 96 96 95 97 97 97 94 99 97 96 98 99 100 100 98 100 100 100 100 100 100 98 99 95

GFSGL_sfc_rhum_090.txt.gz
RH
90 89 84 84 78 77 82 78 75 74 77 76 76 82 83 81 83 85 86 88 88 83 86 89 84 80 85 87 91 90 91 92 90 76 75 74 92 86 87 95 93 91 86
84 89 85 83 81 81 82 80 76 74 74 72 73 78 78 80 78 81 80 76 88 87 86 88 83 82 88 84 89 88 88 88 89 88 83 89 94 91 87 92 87 82 83
82 87 89 86 84 82 81 82 78 77 74 71 69 74 74 77 76 76 75 76 76 77 77 80 79 81 86 84 88 88 89 90 90 88 82 79 90 97 97 93 94 89 84
84 81 87 84 85 82 80 81 82 79 78 75 70 71 72 70 72 72 73 75 76 74 76 74 76 78 81 82 87 89 86 86 86 91 90 89 94 95 96 97 97 90 88
85 84 83 81 77 79 86 81 81 83 79 77 76 73 73 72 68 72 71 73 75 77 77 77 79 78 84 82 83 86 87 91 91 92 90 90 96 100 98 95 97 94 95
81 85 81 82 82 79 78 86 85 84 84 80 77 78 77 71 77 81 73 70 69 72 75 75 76 85 84 89 89 85 78 90 91 90 87 92 88 92 92 95 96 99 99
77 83 83 85 87 84 82 83 86 90 86 88 86 82 81 77 85 84 82 66 68 70 72 72 73 74 85 78 92 96 99 99 100 86 88 90 91 90 92 100 100 99 100
86 85 84 84 85 86 87 87 86 85 87 87 87 84 83 77 88 88 86 72 68 68 71 73 76 77 82 88 88 98 100 99 99 99 99 99 99 99 98 96 96 99 99
82 84 85 88 89 93 88 88 85 84 87 88 86 88 85 82 94 95 93 82 78 76 74 79 82 86 88 98 98 100 100 99 98 97 98 98 98 98 94 94 99 96 99
82 81 81 84 88 94 96 97 86 84 86 89 88 86 89 88 100 98 98 88 90 89 83 99 100 95 98 100 92 98 98 98 98 98 97 96 95 96 97 99 97 96 96
77 78 78 80 82 89 93 96 96 97 92 92 95 99 98 98 98 98 99 93 92 94 96 100 99 99 99 99 100 99 98 96 98 96 95 95 94 94 94 95 97 97 96
77 78 80 80 80 82 90 94 94 97 98 98 98 98 98 98 97 96 97 99 99 99 98 98 99 97 96 95 95 97 95 95 95 95 94 95 95 95 96 96 96 94 90
81 83 84 85 85 85 90 92 94 95 98 98 97 96 96 96 96 94 95 97 98 96 96 96 95 93 93 94 95 95 94 94 95 95 96 96 96 97 97 97 96 96 96
85 88 85 87 86 90 89 90 96 97 96 96 96 96 97 96 96 94 92 93 92 94 96 96 95 94 93 94 94 95 96 96 95 96 97 97 96 96 94 93 92 89 89
87 88 89 87 86 87 92 96 95 97 95 95 97 95 94 96 98 97 92 93 93 95 94 94 95 95 95 96 95 96 96 96 95 96 96 96 94 92 90 85 81 80 83
89 89 92 91 89 84 85 90 94 94 93 93 92 91 96 96 95 96 96 97 96 94 93 94 96 96 95 95 95 95 95 95 95 94 95 93 91 88 85 81 79 82 82
92 91 89 88 88 88 87 88 93 88 90 95 96 97 96 95 92 91 92 94 95 88 92 95 96 96 96 94 93 93 94 94 93 92 90 89 86 84 86 86 85 80 80
95 94 94 95 95 94 93 93 92 92 94 94 92 93 94 92 91 92 93 87 93 92 93 94 95 95 94 93 92 93 92 90 88 87 90 92 92 89 89 83 82 92 82
93 95 96 96 95 95 94 93 91 92 93 95 91 89 94 92 91 91 88 93 94 93 92 91 94 93 93 91 92 92 92 93 93 93 91 87 97 90 92 90 90 92 90
92 92 93 94 94 93 94 94 92 92 92 93 93 95 94 86 93 95 95 95 95 94 94 92 92 90 92 92 94 93 94 94 93 91 99 97 98 94 96 96 97 98 95
95 93 90 91 93 94 94 94 94 92 92 93 95 95 91 91 94 94 94 95 94 94 95 93 94 95 94 94 93 95 95 98 96 97 97 98 100 100 98 97 97 97 93
94 94 93 94 94 94 94 94 95 94 94 94 95 93 90 93 93 93 94 97 97 96 93 95 96 95 96 97 97 98 99 99 100 99 99 99 98 99 99 99 100 100 99
94 94 93 93 94 94 95 94 94 94 94 94 93 94 94 97 97 97 97 99 96 95 94 93 93 93 96 98 98 98 99 100 100 99 100 100 100 100 100 100 100 100 100
93 93 91 93 93 93 94 95 94 93 94 95 95 96 97 96 97 99 99 100 99 98 99 98 93 94 96 100 99 98 95 99 98 99 100 100 100 100 100 100 100 100 100
92 93 94 95 95 96 96 95 96 96 96 97 98 97 96 97 97 100 100 98 97 99 100 99 100 100 98 95 94 93 98 100 100 100 100 100 100 100 100 100 100 100 100
90 92 94 94 95 96 96 96 98 97 98 97 99 100 100 100 100 100 100 99 99 98 99 100 99 100 100 99 97 99 100 100 99 99 100 100 100 100 100 100 100 100 99

GFSGL_sfc_rhum_093.txt.gz
RH
80 78 89 91 88 88 88 86 89 88 86 84 83 84 83 82 88 90 80 81 83 80 91 93 85 84 90 92 93 91 92 94 94 78 75 78 93 87 84 88 86 85 82
87 80 85 91 86 86 88 86 84 85 85 81 83 82 82 83 84 86 88 86 89 86 90 92 89 90 92 91 92 92 91 90 90 90 79 85 93 86 82 83 90 91 87
90 84 85 94 92 86 85 88 84 80 82 80 81 83 83 82 87 88 85 84 89 88 87 90 85 89 90 89 91 89 88 87 91 90 83 78 83 96 93 92 87 91 92
90 93 86 94 93 90 87 87 87 82 80 79 78 79 80 81 81 85 85 86 85 85 85 85 84 85 86 84 88 88 87 89 90 93 91 87 87 89 97 95 98 98 94
92 91 94 94 94 93 91 89 88 86 82 80 78 77 78 77 75 78 77 79 82 82 82 81 82 81 85 82 80 83 88 91 90 90 91 89 88 89 97 86 95 92 94
89 91 90 93 94 92 94 91 91 89 86 84 84 81 79 73 79 84 78 76 74 78 80 81 80 87 87 90 91 86 80 90 90 88 86 87 83 82 84 92 89 94 98
86 86 89 90 90 90 87 89 92 91 90 90 88 85 84 80 86 87 87 72 75 77 78 76 77 78 88 82 92 94 95 91 87 73 80 80 82 80 81 88 92 93 96
83 82 83 85 88 89 90 89 89 90 93 92 91 89 88 83 91 90 90 80 76 75 76 77 79 78 78 84 85 85 90 87 93 96 90 83 80 93 98 94 94 100 99
81 82 82 83 87 89 93 95 90 89 90 91 90 92 93 89 100 95 94 84 82 80 75 75 77 80 80 88 87 88 94 100 98 98 98 98 98 98 97 98 100 99 100
79 78 76 79 82 88 92 94 95 96 95 89 89 90 98 96 98 99 99 91 92 89 84 82 86 80 84 92 88 87 94 100 98 98 97 95 94 95 95 97 99 100 97
75 76 76 76 77 82 86 88 92 95 97 97 96 96 96 95 95 95 97 99 98 96 96 98 98 98 99 99 100 94 99 98 97 95 95 94 94 94 94 95 96 96 95
76 82 84 85 84 82 88 90 90 93 96 98 97 97 96 95 95 94 95 97 98 98 99 99 99 96 94 95 96 98 97 94 92 94 93 94 94 94 95 95 97 96 96
80 86 83 84 87 87 92 94 95 92 95 96 96 96 96 96 95 94 92 94 93 95 94 96 96 95 92 95 96 96 96 96 95 95 95 96 96 96 96 96 97 96 96
85 84 84 87 89 90 88 90 93 97 95 95 95 96 96 95 95 94 95 94 92 93 94 94 95 94 94 93 92 94 95 95 95 96 96 96 96 95 95 95 95 95 94
86 86 88 86 86 88 93 95 93 96 94 96 95 95 94 95 97 94 92 96 96 97 94 94 95 95 94 95 96 95 95 95 95 96 95 96 95 93 94 93 92 90 90
87 88 91 91 90 87 86 90 90 93 94 95 95 93 96 95 89 87 87 88 90 83 90 94 95 94 95 95 95 95 95 94 95 94 95 94 94 92 88 83 80 83 81
91 91 90 90 90 91 91 91 94 89 86 90 92 89 88 88 83 84 86 86 83 80 91 94 95 95 95 93 93 92 94 94 93 92 90 89 88 85 85 79 80 78 77
94 94 95 96 96 95 94 94 94 95 95 95 91 93 92 88 87 85 79 79 88 87 91 94 95 95 94 93 93 93 92 90 89 87 90 91 91 88 88 82 81 90 76
94 95 95 95 95 95 93 93 92 93 94 94 91 88 93 88 87 87 84 91 93 93 92 92 94 94 94 92 93 93 92 93 92 92 92 88 95 90 93 92 89 90 87
93 93 93 94 94 94 94 93 92 92 92 94 93 95 94 87 92 94 94 94 94 94 94 92 91 91 93 93 95 94 94 93 92 90 96 97 98 95 97 96 97 99 92
96 94 92 92 94 94 93 94 93 93 93 94 95 95 94 94 95 95 94 96 95 95 96 94 95 96 94 94 91 94 93 96 94 94 96 97 100 100 98 98 97 94 92
95 95 94 94 93 94 94 94 94 93 93 93 95 93 90 93 93 94 95 96 97 96 96 95 96 98 97 96 96 97 98 99 99 98 98 99 100 100 99 99 100 100 98
93 94 93 93 92 92 94 93 94 94 94 94 92 93 93 96 97 97 97 97 95 95 92 92 96 97 98 99 98 98 99 100 100 99 100 100 100 100 100 100 100 100 100
93 94 92 95 95 94 96 96 95 93 93 95 96 96 96 98 99 99 99 98 97 98 98 98 97 97 97 100 100 100 97 100 99 99 100 100 100 99 100 100 100 100 100
94 95 96 97 96 97 96 96 97 96 97 97 97 96 94 96 97 100 99 98 98 100 100 99 99 99 98 97 97 98 100 100 100 100 100 100 100 100 100 100 100 100 100
92 93 95 95 96 96 97 98 98 98 99 99 99 99 99 99 98 99 99 100 100 100 100 100 100 100 100 100 99 100 100 100 100 100 100 99 100 100 100 100 100 100 100

GFSGL_sfc_rhum_096.txt.gz
RH
84 89 96 96 94 95 95 96 96 94 93 90 88 86 88 90 89 91 89 91 90 89 87 87 86 82 86 91 96 95 93 91 87 72 76 82 91 90 84 87 83 85 80
83 84 89 96 96 96 96 95 95 95 93 92 92 91 85 84 89 90 91 88 90 88 88 88 82 86 88 90 92 89 90 88 86 86 79 90 90 86 79 80 83 82 79
87 84 87 91 96 96 96 95 92 94 94 92 92 90 89 85 85 90 92 90 89 86 83 85 82 87 87 90 94 92 91 89 92 88 83 80 83 88 89 87 84 84 90
90 85 91 91 93 96 95 95 92 89 91 93 91 90 88 87 84 87 86 88 89 89 87 84 81 83 86 88 92 92 90 93 93 94 91 87 85 87 94 88 90 97 89
97 91 90 89 89 95 95 95 93 90 86 85 86 88 88 87 85 87 89 89 89 89 88 88 87 86 89 85 82 86 90 91 90 90 90 88 88 91 96 85 93 86 85
92 94 95 93 92 93 92 95 95 94 92 89 87 86 87 81 87 91 88 87 88 91 91 90 87 91 90 92 92 87 79 88 86 86 84 86 84 84 84 87 90 94 95
86 86 87 90 94 94 94 93 94 95 94 94 92 89 87 84 88 89 90 80 81 82 82 81 80 80 89 83 92 94 94 90 86 74 83 82 83 80 80 84 88 89 89
82 82 82 84 86 87 91 93 94 94 94 93 92 90 89 84 93 91 92 82 78 78 79 80 80 78 79 84 86 87 90 89 93 92 84 80 79 82 91 90 91 94 98
79 79 78 80 83 86 90 94 93 94 96 96 95 95 95 94 98 99 98 90 89 89 82 80 80 83 85 89 88 88 89 95 98 97 97 95 95 95 97 99 99 99 100
79 78 77 77 81 85 87 90 91 91 94 92 94 94 95 95 96 96 96 98 96 95 91 91 100 99 100 99 94 90 91 94 99 98 96 94 94 95 94 97 99 99 97
79 81 84 83 82 86 87 88 89 90 92 95 94 95 94 97 96 95 96 97 100 99 98 98 98 98 97 98 99 99 99 98 98 96 94 95 94 94 94 94 95 94 94
78 82 84 86 84 83 89 90 89 91 93 95 95 95 95 94 94 93 95 97 96 96 98 98 97 95 95 98 98 98 97 96 96 96 96 96 95 95 95 94 95 95 94
80 85 85 87 87 86 91 93 93 91 93 94 93 95 95 94 94 91 90 90 90 94 94 93 91 90 90 92 91 91 93 93 94 94 96 96 96 96 97 96 96 95 95
84 84 84 87 89 90 88 88 89 91 93 91 92 96 96 94 95 94 94 93 87 91 91 92 89 89 89 90 90 91 93 94 95 96 96 96 96 95 95 95 95 95 93
84 84 87 86 84 86 90 93 93 97 94 94 96 95 94 96 97 91 90 94 93 89 87 88 89 90 91 91 92 92 93 93 94 95 95 95 94 93 93 93 91 88 88
86 87 91 91 90 86 84 89 87 92 88 88 88 90 94 91 88 84 81 80 78 78 87 92 94 94 94 93 93 93 92 91 93 93 94 93 92 89 84 82 80 79 75
91 90 90 88 88 88 89 90 94 89 84 87 88 88 87 85 83 85 83 82 81 80 92 94 95 94 94 92 92 91 94 92 87 87 89 89 87 82 82 80 80 77 75
96 95 96 96 95 94 94 95 94 95 96 96 88 87 85 85 86 83 78 79 88 86 90 93 95 94 92 90 89 89 88 88 87 85 89 91 91 85 84 80 79 83 71
94 95 96 96 95 95 94 94 94 94 94 95 92 90 93 86 88 87 84 91 93 92 92 91 94 92 91 88 92 91 91 92 90 92 90 88 94 84 85 81 80 84 80
94 94 94 95 95 95 95 94 94 94 94 95 95 96 94 87 93 94 94 94 94 93 92 90 88 88 92 91 95 94 92 91 91 89 94 95 94 90 89 89 90 89 82
96 95 95 94 95 95 95 95 94 94 95 96 97 96 91 93 96 95 94 95 94 93 95 91 93 94 92 93 89 92 91 94 91 92 93 94 97 94 88 90 90 87 80
95 95 94 95 94 95 95 94 95 95 95 95 95 92 90 93 93 93 93 95 96 93 93 93 93 92 93 93 91 95 94 97 95 94 95 94 91 91 92 93 93 92 87
95 95 94 94 94 94 94 94 95 96 96 96 94 95 95 97 97 96 96 96 93 94 92 91 94 92 92 94 94 89 90 92 95 96 97 98 94 95 98 95 93 93 93
94 95 92 94 95 95 96 98 96 95 95 97 97 98 98 99 100 99 99 98 97 98 98 97 92 89 87 95 96 96 91 97 96 96 98 98 96 94 96 93 94 98 96
96 96 96 96 96 97 96 96 97 98 97 98 98 98 97 99 98 100 100 99 100 99 99 99 99 98 98 98 98 97 100 100 100 100 98 97 98 98 97 95 98 94 97
92 94 95 95 96 97 97 98 99 98 99 99 99 99 99 99 99 100 100 99 100 100 99 99 97 98 99 99 98 100 100 100 100 99 100 96 97 97 97 97 97 97 94

GFSGL_sfc_rhum_099.txt.gz
RH
85 88 82 79 79 79 79 79 78 84 88 89 90 87 86 87 89 89 86 82 79 76 78 79 80 78 84 77 71 70 71 71 71 53 50 56 84 86 81 79 83 83 79
86 89 83 81 79 81 81 81 80 79 85 82 86 87 88 84 83 83 90 82 78 78 79 85 85 85 85 82 81 83 77 76 73 67 58 63 70 76 72 79 78 72 72
86 86 86 85 83 79 79 79 79 77 76 76 79 87 89 89 87 87 87 88 89 86 86 89 84 84 88 90 91 88 84 80 84 73 64 58 68 78 77 82 78 80 78
84 82 84 83 81 80 79 79 80 78 76 75 75 76 79 79 82 87 88 87 86 82 80 81 83 87 86 88 85 86 85 85 81 77 74 69 67 64 68 69 68 69 68
87 87 87 83 84 84 82 80 79 79 75 72 75 74 74 72 71 77 80 86 86 83 76 71 73 75 84 82 80 82 84 85 79 77 77 75 73 74 78 69 77 71 69
93 93 91 91 87 91 88 83 82 80 75 74 75 76 77 69 87 93 82 76 76 73 72 70 70 87 89 91 90 87 75 79 78 77 74 79 76 71 68 75 79 83 88
85 84 87 89 92 93 92 90 89 85 82 81 78 74 75 73 91 94 95 70 71 74 75 74 71 67 85 71 93 96 96 90 85 68 74 75 75 70 68 75 79 82 84
84 82 80 82 85 86 88 92 95 94 94 92 90 87 83 86 98 96 95 87 83 83 82 79 78 74 72 78 79 78 82 86 93 90 86 80 84 94 96 91 89 86 94
83 80 78 79 82 84 89 92 92 93 93 97 94 95 94 93 96 96 97 91 89 88 86 87 92 95 99 99 95 92 90 94 98 97 98 98 97 94 95 98 98 99 100
76 77 77 78 82 85 87 88 88 89 90 88 89 92 95 92 95 96 95 95 99 99 97 93 97 95 97 99 98 99 99 99 99 97 97 94 93 94 94 97 98 100 100
74 78 78 76 80 84 83 82 84 88 89 91 92 92 92 94 93 93 96 97 99 97 95 95 95 97 95 96 97 99 100 99 98 96 95 95 95 94 92 92 95 95 96
74 76 81 81 78 79 83 83 82 84 88 91 92 92 91 92 90 90 90 91 90 93 97 96 96 91 90 91 92 93 92 92 93 94 93 95 95 94 93 92 94 94 94
76 78 80 81 81 80 86 87 86 84 87 88 88 90 90 89 91 89 87 88 87 92 92 89 86 85 85 87 85 85 86 90 91 92 94 95 96 94 90 90 90 90 92
80 80 75 78 77 75 77 82 87 89 89 87 88 91 90 89 90 89 89 89 85 88 86 88 84 85 86 86 88 89 92 91 91 92 94 93 90 87 88 84 85 84 79
78 79 78 75 74 76 84 87 86 94 89 89 92 90 92 94 95 86 87 90 88 84 85 86 87 87 88 89 88 89 87 86 88 87 87 85 81 76 75 70 67 64 67
77 80 84 82 80 74 73 81 86 86 84 84 83 87 92 87 82 80 79 79 78 77 86 90 92 91 91 88 88 87 85 83 81 78 77 70 68 66 65 63 61 62 63
83 83 78 78 78 78 80 82 88 88 85 88 87 84 82 80 80 81 80 79 76 76 86 88 91 90 87 80 80 79 81 77 72 69 70 70 68 64 65 66 67 62 61
92 90 90 91 90 89 88 88 87 89 92 92 88 89 84 81 79 76 74 72 80 78 78 84 87 84 76 71 69 69 69 70 70 67 74 76 76 70 69 63 64 68 56
85 88 90 90 90 88 87 87 86 87 88 88 84 83 84 83 84 83 80 83 85 83 77 78 79 74 72 70 80 79 82 82 80 81 77 75 80 67 68 64 66 71 61
85 89 87 86 87 87 86 86 86 86 87 88 88 89 84 79 89 90 88 88 86 80 78 72 71 73 77 76 83 82 81 80 77 75 83 83 81 74 74 71 72 70 62
85 86 88 84 86 86 86 86 86 86 87 87 90 90 84 82 86 85 83 86 83 81 84 78 82 82 79 80 74 79 79 83 77 77 77 76 82 78 70 72 72 65 62
85 86 85 87 86 88 87 85 87 87 87 85 85 83 81 84 80 79 80 86 87 82 80 81 79 78 78 76 76 81 80 82 80 79 80 78 74 75 73 73 73 74 68
86 87 85 85 86 88 89 84 84 83 82 83 78 80 82 86 85 82 85 86 81 83 79 78 82 79 79 82 79 77 78 80 81 82 80 79 74 76 79 76 74 74 75
83 86 80 86 86 83 86 88 85 80 81 85 88 87 87 88 90 89 89 88 85 87 86 85 80 77 77 83 80 77 76 81 79 81 83 81 77 75 77 74 74 80 77
86 87 88 87 86 89 88 85 87 86 86 87 88 87 84 86 86 89 89 88 87 87 86 85 84 82 86 86 85 83 87 88 85 94 81 81 82 81 80 76 81 74 78
81 83 86 86 88 88 89 89 90 88 89 89 88 88 86 85 85 86 86 85 85 85 83 84 84 87 83 76 78 89 86 86 84 92 86 78 81 80 80 81 73 79 75

GFSGL_sfc_rhum_102.txt.gz
RH
83 80 72 65 63 62 62 66 66 71 77 80 81 80 91 94 94 96 94 92 93 93 94 95 93 89 89 83 83 81 79 79 77 50 47 52 49 60 56 56 56 69 60
86 85 73 67 63 64 64 67 68 69 73 77 80 74 78 80 85 87 89 83 87 87 87 86 78 62 73 72 78 79 74 65 70 69 57 57 53 50 57 56 55 56 69
88 84 76 73 66 62 62 64 66 68 67 71 71 78 78 74 78 80 79 76 78 76 74 71 66 77 83 81 83 84 78 62 72 81 57 55 60 57 58 56 58 59 66
88 82 79 75 66 61 61 65 67 66 68 69 69 71 75 75 73 73 74 79 70 66 68 68 76 80 82 81 79 79 82 86 86 85 82 71 60 52 50 53 61 56 54
90 83 81 74 70 68 70 68 67 68 67 65 68 69 72 72 70 76 75 78 77 79 79 74 71 67 78 72 63 76 85 90 87 83 80 79 74 67 60 52 59 57 54
91 93 87 83 84 83 76 75 75 72 66 66 67 69 70 64 85 92 81 74 75 74 75 76 76 85 86 92 91 88 76 80 81 79 81 80 72 62 56 58 61 67 74
87 85 84 87 89 93 93 88 79 76 73 70 68 66 69 76 96 96 94 66 70 71 71 71 71 61 78 62 90 96 94 91 90 66 73 72 72 69 72 68 68 70 75
83 81 82 82 84 86 87 91 94 94 96 93 93 90 92 86 96 96 99 90 86 80 78 86 92 89 90 91 81 78 83 85 88 86 87 87 94 94 96 95 97 98 98
82 83 84 85 86 88 90 92 92 91 92 93 91 91 91 91 95 96 93 93 92 92 93 92 90 90 98 98 98 98 98 100 98 98 100 98 94 94 95 96 98 99 100
83 82 78 83 83 84 87 90 89 87 88 86 89 91 94 91 94 95 93 93 99 96 94 93 96 94 96 96 97 99 100 100 98 96 95 94 93 94 91 95 95 100 100
73 77 75 69 76 79 79 80 83 86 86 90 91 92 90 92 92 91 92 93 94 94 94 95 96 93 93 93 93 97 99 97 97 96 96 95 94 92 90 90 93 90 92
69 70 70 72 70 71 76 78 78 81 85 88 91 92 91 89 87 88 88 89 87 92 96 95 94 88 87 87 89 87 87 88 92 93 92 95 94 95 94 91 92 90 90
76 71 72 70 67 70 75 76 76 74 80 83 84 87 88 87 88 86 85 86 86 92 91 89 84 84 83 87 84 83 83 88 91 93 94 94 92 90 88 86 87 86 80
70 70 75 76 73 70 69 74 79 80 82 82 85 89 90 89 91 89 89 89 85 88 90 91 87 85 83 88 93 92 97 98 94 90 90 90 87 85 84 79 78 77 66
71 70 70 70 71 76 85 87 84 92 87 88 91 90 94 95 92 87 88 90 92 89 96 94 92 90 88 88 87 86 84 84 85 84 83 81 76 70 67 63 58 54 55
74 74 78 76 72 66 68 79 86 88 85 85 86 87 90 84 79 79 79 78 76 80 96 90 90 87 88 86 86 84 80 76 75 74 73 64 61 60 57 54 51 49 47
77 77 72 72 72 73 76 79 85 86 83 87 84 84 85 82 78 78 77 74 73 77 87 86 88 85 82 72 70 69 72 67 63 61 63 64 62 57 60 59 59 53 50
89 90 90 91 89 88 86 86 84 85 89 91 85 85 83 81 79 75 70 69 79 74 76 80 81 75 65 59 57 59 61 64 63 60 68 71 70 65 63 56 57 62 48
80 83 85 86 86 85 84 84 83 83 84 84 81 80 79 78 78 77 75 80 80 75 67 65 69 63 62 61 73 73 75 76 74 76 72 70 76 62 63 60 61 63 54
79 81 79 80 81 83 82 82 82 82 83 85 85 86 80 77 86 87 84 83 79 70 66 61 61 63 68 68 76 76 73 72 70 67 77 77 77 69 69 66 68 66 55
78 80 78 78 81 81 81 82 80 81 82 83 88 86 78 78 80 78 75 78 74 70 74 66 72 73 69 70 64 71 70 76 70 69 70 68 77 72 64 65 65 59 55
78 78 78 80 79 82 80 78 81 80 78 78 79 75 72 77 72 71 73 80 81 73 71 73 70 68 70 69 70 76 73 76 74 72 71 68 66 68 66 66 67 67 61
78 79 76 76 77 79 82 77 79 78 76 75 70 72 73 79 78 74 78 81 75 78 73 72 75 71 71 75 74 71 72 74 73 76 75 72 67 69 72 70 66 67 69
76 78 72 79 81 76 80 82 78 71 71 77 80 79 77 79 82 80 81 81 78 80 79 78 74 74 70 75 74 69 68 76 73 71 76 75 69 69 70 66 66 70 70
77 79 79 77 77 80 79 76 79 79 78 79 80 79 73 76 74 79 80 78 76 78 75 75 77 71 73 75 77 75 81 80 79 89 75 73 72 75 72 69 74 67 68
70 72 76 76 78 79 80 80 80 79 80 80 80 80 78 76 74 78 77 75 75 74 72 75 73 72 72 52 63 82 81 80 78 82 83 73 74 73 72 72 67 73 67

GFSGL_sfc_rhum_108.txt.gz
RH
69 74 77 72 73 74 71 72 77 79 79 82 81 82 94 93 94 96 96 95 96 96 97 97 98 96 96 96 97 95 94 91 84 77 72 66 72 84 75 83 74 76 79
78 83 83 82 78 80 77 76 80 81 79 78 82 90 89 94 94 97 97 94 95 96 94 95 94 95 96 95 96 96 95 94 91 86 72 72 72 69 78 82 71 68 79
87 87 87 86 88 83 74 76 79 79 78 78 80 84 88 91 94 95 94 95 94 94 93 95 94 96 98 97 96 96 94 89 92 88 80 76 76 78 75 78 85 89 79
92 90 94 93 88 85 79 78 83 80 80 79 78 80 84 83 85 88 91 93 93 92 91 90 90 93 94 94 95 93 90 94 92 91 86 79 87 82 82 78 85 83 78
93 96 96 94 90 86 84 83 85 83 80 80 83 84 85 83 80 86 85 90 88 88 87 83 86 86 92 90 82 86 88 88 87 88 90 90 85 81 82 73 73 71 73
90 93 92 95 93 92 87 86 89 85 83 83 82 86 89 73 96 97 95 85 83 84 88 86 80 93 90 91 93 92 87 86 89 90 91 90 86 79 82 83 80 84 95
90 89 90 92 93 95 93 90 92 91 88 90 90 87 85 84 96 96 98 84 95 94 93 91 88 84 92 86 96 94 94 98 100 92 95 94 94 97 93 93 96 98 98
90 90 89 89 92 92 92 94 95 94 95 94 92 88 88 88 96 97 97 90 92 91 92 92 94 93 93 94 95 97 95 95 97 92 98 98 98 96 96 97 98 99 100
96 95 93 92 91 92 94 94 93 94 94 93 92 92 92 94 96 97 96 93 92 93 90 92 90 93 97 95 98 98 98 98 94 93 94 92 92 92 94 99 99 100 100
99 97 96 95 94 96 98 99 94 94 95 92 94 94 92 94 96 95 92 92 95 94 93 93 95 94 96 96 98 97 98 98 97 96 95 95 93 92 91 96 97 100 99
99 100 98 98 97 97 99 100 97 98 100 100 99 97 96 97 98 96 95 94 94 94 95 96 97 97 97 96 95 96 96 96 96 96 95 94 92 92 92 92 94 96 96
94 96 98 98 95 98 100 99 98 98 99 98 97 98 97 96 97 98 96 96 97 94 97 97 96 88 87 88 90 89 88 90 92 93 94 95 96 96 95 91 92 91 92
93 91 92 90 93 96 95 94 94 90 91 91 92 95 96 98 96 89 89 89 90 94 94 92 88 86 85 88 91 93 90 91 92 93 95 96 96 97 98 97 94 91 90
81 89 88 89 88 89 88 91 93 96 94 92 92 94 95 94 97 96 97 93 86 90 88 88 87 85 86 88 88 89 91 92 93 94 96 96 96 95 94 95 94 93 93
75 80 85 79 82 84 90 91 90 96 94 94 96 96 96 96 98 96 95 97 97 95 91 89 90 90 91 90 89 88 89 88 89 90 91 90 93 94 92 88 86 87 81
84 87 95 91 86 78 81 88 82 85 85 86 88 92 95 89 86 84 82 82 82 83 88 92 93 91 90 90 88 88 86 85 87 87 90 88 85 85 84 81 81 79 80
86 92 89 89 90 95 94 89 94 88 81 84 85 85 86 90 79 74 73 75 78 78 89 90 90 88 85 82 83 84 88 86 82 84 87 88 89 83 86 81 82 86 82
94 90 93 96 96 95 95 95 94 93 94 96 82 81 79 77 76 75 70 72 82 78 82 84 85 84 79 78 79 82 84 87 88 84 91 92 93 91 92 80 81 90 85
86 92 94 94 93 93 93 94 94 93 94 95 95 94 89 75 74 73 72 83 82 80 76 77 82 81 82 85 93 93 94 94 94 93 93 93 94 92 92 89 91 82 83
86 89 89 91 92 91 91 93 92 92 92 93 93 95 93 86 89 89 88 88 87 84 82 80 81 84 89 91 92 92 91 90 91 90 95 95 94 94 94 93 92 91 88
91 90 94 90 93 92 93 93 92 90 90 92 93 90 86 87 88 88 89 89 89 90 90 86 89 89 87 87 88 91 90 93 91 94 93 93 93 93 93 92 94 91 87
90 91 88 92 91 93 93 92 93 93 93 90 89 86 84 88 86 88 90 92 94 93 90 90 88 89 90 89 89 93 93 94 93 92 94 94 92 94 94 93 92 94 91
83 89 84 88 94 89 90 87 95 92 88 88 85 87 88 92 93 91 92 93 90 91 89 87 90 90 94 94 88 88 93 95 96 96 96 94 95 94 96 93 92 92 93
82 83 80 88 90 84 94 95 90 85 87 90 91 92 92 93 92 92 95 94 93 94 95 96 91 88 88 92 89 86 88 94 92 93 94 97 94 92 94 93 93 91 94
83 84 87 87 88 91 89 87 89 89 89 92 92 92 90 92 91 93 93 93 92 95 93 93 94 89 90 89 91 90 93 96 96 95 95 94 92 88 97 93 95 90 90
77 80 84 86 88 89 90 90 90 90 92 92 93 94 93 91 92 92 91 90 93 92 89 93 89 83 91 86 87 93 92 94 96 95 97 96 96 95 94 94 90 94 91

GFSGL_sfc_rhum_111.txt.gz
RH
89 81 82 84 81 91 79 75 79 84 87 87 92 96 96 94 94 96 96 94 96 96 96 95 92 90 96 99 98 96 95 90 86 81 77 81 76 86 79 85 83 86 84
96 96 94 94 92 91 85 85 84 88 91 91 91 94 95 94 96 96 98 97 98 98 98 98 98 97 96 95 95 95 95 95 93 91 90 91 87 77 79 87 84 76 82
93 96 96 96 95 90 88 82 86 87 93 92 92 91 97 96 97 96 95 96 95 94 95 96 95 98 98 98 96 95 96 95 96 95 94 89 80 79 78 79 83 86 84
89 92 95 97 96 90 88 87 90 88 93 90 90 91 93 94 95 95 95 96 94 93 93 93 93 95 95 97 97 96 96 98 98 96 92 85 83 85 87 84 91 87 85
87 90 93 93 97 96 90 90 90 90 90 88 92 92 92 91 89 94 94 96 96 96 96 94 93 92 98 97 93 96 96 98 98 98 96 92 89 91 93 92 87 84 86
89 90 89 90 91 97 93 92 89 89 89 91 94 92 87 78 96 98 97 95 94 94 96 94 90 97 97 100 99 98 95 95 96 94 93 94 91 86 82 82 84 93 95
89 88 88 89 92 94 92 95 97 94 93 96 92 87 88 87 97 96 98 92 93 94 93 94 88 84 94 89 98 99 98 98 100 95 95 96 96 97 95 96 97 97 99
92 90 88 90 92 92 92 93 95 94 95 94 94 92 92 90 97 97 100 92 92 93 94 94 94 94 95 96 94 95 96 96 96 91 97 98 98 96 97 97 98 99 99
98 96 92 92 93 94 96 97 95 94 95 95 93 93 94 96 97 100 94 92 93 94 93 94 92 94 97 96 96 97 97 98 94 92 93 94 94 93 95 98 100 100 100
98 98 94 94 97 98 97 99 98 97 100 95 97 96 96 97 97 95 92 92 95 95 95 95 96 96 97 99 96 95 97 98 97 96 95 94 93 92 92 97 98 100 100
98 95 92 98 99 98 98 99 100 100 99 98 97 96 96 98 99 98 93 94 95 95 95 96 98 96 96 96 96 95 95 97 97 97 96 94 92 90 90 91 94 94 95
91 92 94 95 96 98 97 99 100 100 98 97 97 97 97 97 98 98 98 96 94 94 97 98 98 98 97 95 95 96 95 96 95 96 95 96 95 92 86 87 88 85 88
87 90 92 91 94 95 95 96 96 96 95 96 95 96 98 98 98 97 96 95 96 95 97 97 95 94 91 93 95 93 90 91 92 93 95 95 97 99 98 95 91 88 86
89 86 86 88 89 89 90 92 92 95 96 95 94 95 97 97 98 97 96 96 93 94 92 90 88 88 88 90 91 92 93 93 93 94 94 98 96 93 92 97 97 97 88
85 90 87 80 81 84 89 92 91 96 95 95 97 97 98 98 99 97 95 96 97 97 94 92 92 91 91 90 89 89 91 90 90 91 90 92 93 84 87 86 83 78 78
88 90 94 96 86 82 84 89 85 90 89 90 92 95 97 93 89 88 88 88 90 91 92 94 95 94 93 91 90 90 89 88 90 88 92 87 87 87 84 83 79 80 72
94 92 92 92 93 97 91 90 94 90 80 84 86 87 90 83 80 81 80 77 75 76 88 90 92 92 91 90 91 91 91 90 85 86 88 90 84 78 80 81 81 81 83
94 97 97 98 98 97 97 96 96 96 97 97 86 86 82 78 75 71 71 73 83 81 87 90 93 92 87 85 84 85 88 89 89 88 90 92 90 88 90 82 80 88 85
92 96 97 98 98 98 97 95 94 94 96 96 93 95 87 78 78 77 78 89 89 89 87 90 92 90 89 90 95 92 93 94 93 92 91 89 96 89 93 88 88 89 84
96 95 96 97 97 97 97 97 94 94 95 96 95 97 93 88 93 94 94 94 94 94 92 91 90 92 95 93 95 96 93 94 92 89 94 95 95 95 93 94 95 95 89
97 98 97 96 96 97 97 98 97 96 96 98 96 93 90 93 96 96 95 95 95 95 95 92 94 95 94 95 93 93 92 94 94 96 96 95 98 97 97 94 93 92 86
96 98 96 98 98 96 96 97 97 97 98 96 95 94 93 94 95 95 94 96 97 95 96 96 96 96 96 96 96 96 97 98 98 97 97 96 94 96 96 96 95 95 95
94 95 95 93 98 98 95 91 97 97 97 96 96 96 95 98 97 97 97 100 98 97 96 94 95 96 96 94 95 96 98 100 100 100 100 100 98 95 98 98 97 96 98
91 94 94 96 97 96 98 99 99 99 98 98 98 99 99 98 98 99 99 100 98 99 99 99 94 93 95 98 98 97 96 100 96 98 100 100 100 94 98 96 98 96 96
93 95 96 96 96 96 97 96 98 98 98 98 98 98 97 98 98 99 100 100 97 99 98 97 99 98 96 94 94 94 98 100 98 99 98 99 99 97 97 97 98 98 98
94 94 96 96 97 98 96 96 97 97 98 98 98 98 98 98 98 96 97 94 98 99 97 97 94 95 94 96 97 100 96 99 99 99 100 100 99 98 99 99 98 100 98

GFSGL_sfc_rhum_114.txt.gz
RH
85 93 94 86 86 89 88 88 90 92 91 95 96 96 96 91 95 96 94 93 97 96 96 95 95 95 96 96 94 93 90 92 85 84 85 84 87 88 88 87 87 87 85
86 91 97 98 96 92 90 89 90 90 89 92 95 94 94 94 96 95 97 96 96 98 97 96 94 95 95 93 94 95 94 94 92 84 91 96 93 91 90 93 87 81 84
84 88 93 95 98 98 96 92 91 91 91 91 96 96 91 95 94 95 96 97 96 95 94 97 95 96 97 96 97 96 97 97 97 97 96 96 95 98 95 93 87 91 91
84 87 91 94 95 98 97 95 94 92 91 90 94 96 96 96 96 96 96 97 96 96 96 96 96 98 98 98 98 96 97 97 97 96 96 99 96 95 94 92 93 89 88
86 88 91 89 89 93 97 96 93 92 91 89 93 96 97 97 96 98 96 97 97 97 96 95 94 94 99 98 96 98 99 99 99 98 99 99 97 98 94 91 89 88 95
87 89 88 88 88 92 93 96 94 93 92 94 95 96 93 85 98 99 100 98 98 98 98 98 95 100 100 100 100 100 97 99 98 98 97 98 95 91 93 94 92 96 99
89 87 87 88 90 91 90 92 94 96 96 95 93 90 91 90 97 97 99 97 98 98 98 98 98 93 100 97 99 99 98 98 100 97 96 94 94 96 96 95 95 95 98
93 91 89 90 91 91 91 93 96 95 96 96 95 93 94 92 98 98 100 93 94 94 95 95 96 95 96 98 98 97 97 97 97 93 98 99 99 96 96 97 97 98 98
96 96 96 93 96 93 98 96 95 96 96 97 94 94 96 97 98 100 95 94 95 97 94 95 94 96 98 98 97 98 98 98 94 93 94 94 93 94 96 99 100 100 100
97 97 97 98 98 99 99 99 99 99 99 97 96 96 97 97 98 96 94 93 97 97 97 97 98 98 99 100 96 97 98 98 98 96 95 93 93 93 94 98 100 100 98
89 95 96 96 97 98 98 99 100 100 100 100 97 96 97 98 99 98 96 97 98 96 97 98 98 97 97 97 95 96 98 96 98 96 96 96 94 93 92 92 95 96 97
85 88 91 93 93 94 95 97 97 98 97 97 97 96 97 97 98 96 98 99 99 95 98 98 97 93 93 94 95 96 96 96 97 97 96 96 95 92 88 85 87 86 86
85 87 88 87 91 92 94 94 93 96 96 96 95 95 96 98 98 98 96 95 96 96 97 96 95 94 92 94 95 96 96 96 97 96 97 97 92 90 92 83 80 86 81
90 84 82 85 87 88 85 88 92 94 93 93 95 96 97 97 97 97 97 96 96 96 97 97 97 96 95 95 95 96 96 95 94 92 94 97 96 95 96 94 82 79 73
86 89 91 82 83 84 90 93 92 97 96 96 97 97 96 98 99 97 96 97 97 98 94 93 94 94 94 92 91 91 92 90 90 92 92 90 88 84 83 81 72 68 75
84 89 94 97 91 88 86 90 87 88 88 92 92 94 97 94 92 91 92 92 92 91 93 95 96 96 96 96 95 94 93 90 90 88 89 88 87 84 79 76 73 73 72
90 93 95 94 95 96 96 93 96 89 86 88 88 89 89 86 86 86 85 85 84 83 93 95 96 96 95 92 93 93 94 92 86 86 87 88 83 81 81 80 81 80 74
96 96 97 98 99 98 99 99 98 98 97 97 91 90 82 77 75 74 74 77 88 87 92 94 96 93 89 88 88 90 90 90 89 88 90 92 93 88 87 82 82 89 81
96 97 98 98 97 98 97 97 98 97 97 97 96 90 90 80 82 83 84 93 95 94 92 92 94 93 92 90 95 94 94 94 93 93 92 90 94 86 89 87 85 88 86
96 96 96 98 98 97 98 97 97 97 96 96 96 97 95 89 94 96 95 95 96 96 95 93 93 94 96 96 97 97 95 95 95 94 97 96 96 92 93 92 93 92 88
98 98 100 97 98 98 98 99 98 97 96 96 97 96 94 94 96 96 96 97 97 96 98 96 97 97 96 96 94 95 94 97 96 97 97 97 98 97 95 96 95 93 87
98 97 97 99 97 97 98 98 99 99 98 96 98 96 94 96 96 94 95 97 98 97 98 98 97 96 96 96 96 97 98 100 99 99 98 97 96 96 97 96 96 98 96
97 97 98 97 98 98 98 97 98 98 98 98 98 97 97 99 99 98 100 100 96 96 96 96 97 96 96 97 97 98 98 100 100 100 100 100 97 97 100 98 98 99 99
96 98 95 96 96 98 100 100 99 98 98 100 100 98 98 100 100 100 100 100 100 100 100 99 96 96 95 100 99 99 98 100 99 100 100 100 100 99 100 99 99 100 100
97 98 98 99 98 97 98 98 100 100 100 98 99 99 99 99 98 100 100 100 99 98 98 100 99 96 95 95 98 96 97 100 100 100 100 100 100 99 99 99 100 100 100
97 98 99 98 99 100 99 98 98 98 99 100 100 100 100 98 98 99 99 100 100 99 97 100 97 95 96 98 97 99 99 100 100 100 100 99 98 100 100 100 100 100 100

GFSGL_sfc_rhum_117.txt.gz
RH
84 87 90 92 93 93 94 94 92 95 96 96 93 93 96 97 96 96 95 95 96 96 98 97 96 95 97 96 98 96 95 94 89 87 80 85 93 89 86 87 90 92 90
84 87 91 91 92 95 96 94 96 96 95 95 95 97 96 94 95 96 96 94 95 95 96 98 96 97 96 96 97 97 95 96 93 89 93 97 92 92 90 92 92 84 85
82 86 90 91 93 95 96 97 96 96 96 96 96 96 94 95 94 93 94 94 93 93 95 97 95 96 96 95 95 96 96 94 94 93 93 97 97 97 98 96 96 96 96
82 86 89 91 92 93 94 98 97 96 96 97 96 97 94 94 92 93 94 96 95 94 95 94 93 95 96 96 97 95 95 97 96 96 97 99 98 98 97 95 98 96 96
85 87 89 87 87 88 92 93 96 97 96 95 97 98 96 94 96 96 97 98 98 98 97 96 95 96 99 98 97 98 98 98 98 98 98 99 99 100 98 96 96 96 99
84 88 86 86 86 89 89 90 89 93 95 97 97 98 99 94 99 100 99 98 97 98 98 98 96 100 100 100 100 100 99 98 98 99 98 98 96 94 96 96 96 100 100
86 84 86 87 88 90 88 88 92 94 93 94 96 95 96 93 98 98 100 98 98 98 98 98 99 99 100 98 99 99 99 99 100 96 96 96 96 96 96 97 98 97 99
88 87 91 90 89 89 90 94 94 95 96 98 97 96 96 92 98 99 100 99 98 97 98 97 99 99 99 98 98 98 98 98 98 96 99 100 99 97 97 96 97 99 98
94 92 92 95 94 91 96 97 97 95 97 99 97 97 96 97 97 97 96 96 97 98 96 97 96 98 98 99 98 98 98 99 95 94 94 94 94 96 97 99 100 100 100
94 94 92 93 95 96 97 98 99 100 100 99 100 99 100 99 97 96 93 93 96 96 97 96 98 98 99 99 98 98 98 100 98 97 96 95 94 95 95 98 100 100 98
85 89 90 92 94 95 96 97 97 98 98 99 98 96 96 98 98 98 95 96 98 97 96 97 98 98 97 96 95 96 98 96 97 96 96 96 95 95 95 96 98 100 99
82 86 90 92 91 93 93 94 95 95 94 95 95 95 96 97 97 96 95 97 96 95 98 98 98 98 96 97 96 97 96 95 95 95 95 96 96 96 96 95 95 96 96
90 84 88 87 90 91 92 93 92 91 93 94 93 94 96 98 98 97 96 97 96 95 96 96 96 94 95 96 95 95 95 96 96 95 96 96 97 97 97 96 95 92 91
86 89 82 86 87 84 81 87 92 94 94 93 94 96 97 96 97 98 98 97 96 96 96 96 97 97 96 96 96 96 97 97 97 96 96 98 98 96 92 90 85 80 74
80 82 89 84 85 86 87 95 93 97 97 94 97 96 96 96 98 97 95 96 97 97 96 95 95 95 95 96 96 96 96 96 96 96 92 91 90 87 83 83 74 69 74
79 85 90 93 94 90 92 91 83 86 85 89 91 93 96 90 85 85 88 90 91 91 94 96 96 96 96 96 96 96 96 95 93 88 89 86 84 81 79 77 74 70 67
92 92 92 92 94 96 96 95 97 87 79 84 86 85 82 78 77 80 82 81 80 81 92 95 96 96 96 95 95 95 96 95 94 92 90 88 85 84 84 85 82 78 76
96 98 98 98 99 99 99 99 99 99 98 96 88 88 83 82 82 82 77 80 90 88 93 95 96 95 93 91 90 90 89 90 89 88 90 92 92 87 86 85 86 89 78
96 96 98 99 99 98 98 97 98 98 99 98 95 92 92 81 82 85 85 94 96 95 93 93 95 94 94 92 96 94 95 95 94 94 92 90 94 86 87 86 85 86 82
96 97 98 98 98 98 97 97 97 97 97 97 95 96 94 89 94 95 95 96 96 96 95 93 92 93 96 95 96 96 95 95 95 94 97 96 96 93 92 92 92 89 86
99 97 100 96 98 98 100 99 98 98 99 98 98 97 92 95 98 98 97 97 97 97 98 95 97 97 95 95 92 95 95 98 96 96 96 96 97 96 93 92 91 88 85
98 99 98 100 98 99 99 98 98 100 100 99 100 96 95 96 96 96 96 98 99 98 98 96 95 95 96 95 96 98 98 100 100 99 97 96 96 95 94 94 95 96 93
98 98 98 97 98 99 99 99 100 100 99 99 98 98 98 100 100 99 99 100 96 98 98 95 96 94 95 99 99 97 96 99 100 100 100 100 98 97 98 98 98 98 99
97 98 97 96 97 98 99 100 100 100 99 100 100 100 100 100 100 100 100 100 100 100 100 100 97 94 95 100 99 99 98 100 99 100 100 100 100 98 100 99 100 100 100
99 100 99 100 100 99 98 99 100 100 99 99 100 100 100 100 100 100 100 100 100 100 99 100 99 98 97 98 94 93 99 100 100 100 100 99 98 99 100 100 100 100 100
96 99 100 100 100 100 100 100 99 99 100 100 100 100 100 99 99 100 100 100 100 100 100 100 100 98 99 100 98 100 100 100 100 100 100 97 100 100 100 100 100 100 100

GFSGL_sfc_rhum_120.txt.gz
RH
82 85 88 87 88 91 94 86 95 97 96 96 93 92 96 96 98 98 96 96 96 97 97 96 96 94 96 97 97 98 96 93 95 98 95 95 97 90 78 90 88 89 89
83 86 88 88 88 91 92 94 97 97 96 96 96 94 95 98 97 97 97 95 95 97 96 97 96 96 96 96 96 96 98 97 97 97 97 96 94 92 89 92 90 83 87
81 85 88 89 89 91 92 92 94 97 97 97 96 95 94 96 97 95 93 94 95 95 95 96 95 96 96 98 97 97 96 96 97 98 97 96 95 97 98 95 95 96 98
80 84 88 89 88 89 89 90 92 94 97 98 96 94 95 96 94 95 95 95 96 94 92 92 94 96 96 96 97 96 96 98 97 98 96 99 98 98 96 96 99 99 98
82 84 87 86 85 86 89 88 89 91 91 90 96 96 96 97 97 96 94 95 94 95 94 94 94 94 98 96 94 95 96 97 97 98 97 97 97 99 98 96 96 96 99
84 86 84 83 83 87 88 88 88 88 89 91 93 96 96 94 99 100 97 95 96 97 98 97 96 99 100 100 100 100 97 97 98 97 95 98 94 94 97 97 96 100 100
87 85 85 84 86 86 86 89 91 93 91 92 92 92 94 95 98 100 100 98 98 97 98 98 98 98 100 99 99 99 99 99 100 94 96 97 98 97 96 99 98 98 99
89 87 86 87 86 86 87 90 93 92 94 96 95 94 93 92 97 99 100 99 99 98 98 99 99 99 100 99 98 99 98 98 99 99 99 100 99 98 97 96 96 99 99
91 92 91 90 90 89 92 95 93 93 95 96 95 96 97 97 97 97 95 96 97 97 95 96 97 99 99 100 98 98 98 99 96 96 96 96 96 97 98 99 100 100 100
91 93 92 92 93 95 95 95 96 96 95 91 92 94 92 98 98 98 95 94 97 96 94 95 98 99 99 100 99 98 98 98 98 98 97 96 95 96 96 99 100 100 99
84 87 90 88 92 93 92 92 93 94 92 93 94 96 95 96 97 96 98 96 99 97 96 97 98 98 98 98 99 99 99 97 97 97 97 97 96 96 96 96 98 100 100
90 84 88 89 86 89 90 91 92 92 92 92 92 93 96 98 96 96 95 96 96 96 97 97 98 95 95 96 97 98 96 96 96 96 96 97 97 97 97 96 96 96 96
78 88 84 84 88 88 87 91 88 88 90 90 91 92 94 94 97 96 95 96 96 96 97 97 95 93 93 94 95 96 96 96 96 95 96 97 97 98 96 94 95 94 94
76 82 82 83 84 87 85 85 89 92 87 89 91 93 92 91 93 93 94 95 92 95 96 96 97 96 96 96 95 96 97 97 96 96 97 98 97 96 95 96 95 92 88
72 77 82 82 83 83 85 92 91 96 93 94 96 95 95 94 96 88 90 95 96 96 95 94 95 95 95 96 95 96 96 96 96 97 96 96 94 89 89 83 73 71 74
77 80 85 87 94 90 89 87 78 83 81 83 87 93 94 86 78 79 81 82 82 82 90 94 95 96 96 96 96 96 95 95 95 95 95 93 90 87 86 84 80 73 82
87 87 89 89 91 93 95 95 98 87 76 80 81 82 82 82 81 78 77 80 81 82 92 94 95 95 95 94 94 94 95 95 95 94 94 94 93 89 89 89 89 84 84
96 96 98 97 99 98 99 99 99 98 99 96 86 86 84 82 82 83 78 79 89 88 92 95 96 95 92 90 89 90 91 92 92 91 93 93 93 89 90 88 86 87 78
93 96 97 98 99 97 97 97 97 97 97 96 92 88 90 81 82 85 85 94 96 95 92 92 95 94 92 88 95 94 95 94 93 93 90 87 93 84 86 81 81 84 78
96 97 98 97 98 98 97 97 97 97 97 98 97 98 95 89 94 96 95 96 96 95 94 90 89 90 94 94 96 96 95 95 95 92 96 95 93 88 88 86 86 84 79
99 98 99 96 98 99 100 99 100 99 100 100 100 99 96 96 98 98 97 97 97 96 97 93 95 95 94 94 90 94 93 96 93 93 93 92 94 93 87 86 86 81 76
98 97 98 100 99 99 98 98 99 99 99 99 100 98 98 98 97 96 96 99 99 97 95 94 92 92 93 93 93 96 96 98 96 94 94 93 90 90 88 87 89 90 82
97 97 97 97 98 99 99 98 99 100 100 100 99 98 98 100 100 100 100 100 98 99 97 92 94 92 93 96 95 92 93 96 98 98 96 94 90 91 93 92 91 92 88
97 98 97 98 98 98 100 100 100 100 100 100 100 100 100 100 100 100 100 100 100 100 100 99 95 94 92 97 94 92 93 97 95 97 98 96 94 92 93 93 93 96 94
99 100 100 100 100 100 100 99 100 100 100 100 100 99 98 100 100 100 100 100 100 100 98 98 98 98 98 95 93 92 97 100 100 100 96 94 95 96 95 93 95 93 96
96 98 100 100 100 100 100 100 100 100 100 100 100 100 100 98 97 100 100 100 100 100 100 100 99 99 98 94 94 99 98 100 100 99 98 94 94 94 94 96 97 94 90

GFSGL_sfc_rhum_123.txt.gz
RH
81 84 84 83 84 86 88 89 93 88 92 90 82 81 80 89 92 95 94 94 96 97 96 95 93 89 91 93 92 87 93 92 97 95 96 96 98 97 97 95 92 89 80
81 84 86 86 85 87 88 89 90 94 93 92 92 87 82 86 91 96 97 95 96 97 96 94 89 82 90 89 92 92 90 89 96 95 98 98 93 95 92 94 86 78 73
76 82 85 87 87 88 88 87 88 90 92 94 95 95 94 92 92 94 95 95 95 93 92 92 87 83 92 92 92 91 89 90 95 96 98 97 96 97 96 92 81 76 76
75 80 85 85 86 87 86 86 88 87 90 90 92 94 94 92 92 92 95 95 94 92 89 88 84 81 84 88 92 90 88 96 96 97 98 98 96 96 92 95 97 90 94
77 80 84 82 81 82 86 87 87 88 87 87 88 88 93 93 87 94 95 96 95 95 92 88 81 82 92 87 90 93 93 97 97 97 97 97 96 99 97 91 93 96 98
77 81 80 79 80 83 84 84 86 86 87 89 91 90 90 86 96 97 98 97 95 95 95 89 78 97 97 100 100 100 93 94 97 97 94 96 94 93 94 96 95 98 99
80 78 80 79 82 85 83 84 84 88 87 88 88 89 92 93 96 96 98 96 98 96 95 93 93 95 98 93 100 100 100 100 99 86 94 91 92 90 92 97 96 95 96
82 84 84 83 82 82 82 86 92 89 88 90 88 88 88 87 94 96 95 94 96 97 97 96 98 99 99 98 98 99 99 98 99 99 97 92 92 89 91 91 95 99 99
89 90 88 87 87 86 90 92 90 91 93 94 92 91 92 92 92 95 93 92 94 99 96 95 96 97 99 100 98 99 99 100 98 97 97 97 97 98 97 97 100 99 100
90 90 87 85 90 92 95 95 93 94 97 89 98 97 91 94 92 91 92 97 97 98 98 97 99 98 98 99 99 98 99 99 99 100 100 97 97 97 96 100 100 100 100
84 86 87 89 90 89 88 91 94 96 95 95 94 96 91 91 94 89 90 93 96 96 96 96 96 96 96 97 99 100 100 98 98 98 98 97 97 97 97 97 99 100 100
79 82 84 88 87 86 89 88 86 87 88 88 89 88 90 91 86 89 90 92 95 96 97 97 96 93 93 93 96 98 97 97 97 97 96 97 97 98 97 96 96 96 97
70 76 77 76 83 86 85 87 81 82 82 86 86 87 87 85 87 86 87 91 93 96 97 96 95 95 93 94 94 94 95 96 96 95 96 97 97 97 96 95 95 95 95
64 68 66 69 68 71 70 75 78 85 82 81 84 88 86 86 89 86 86 92 88 93 94 96 96 96 95 96 96 96 97 97 96 96 96 97 97 96 96 96 96 96 94
58 63 70 62 61 59 65 77 77 88 86 88 91 88 94 93 92 82 86 91 91 87 90 92 93 93 94 95 95 95 96 96 96 97 96 95 94 93 93 93 94 94 93
59 65 74 72 68 62 63 64 74 76 77 76 79 84 86 80 78 77 79 80 79 78 85 92 94 93 92 92 93 94 94 94 93 93 94 93 92 91 89 84 80 81 82
74 75 70 71 66 72 74 78 82 76 72 76 78 82 78 80 80 80 76 76 79 74 85 88 91 90 89 85 85 86 91 92 93 92 90 92 91 89 86 84 84 82 82
89 88 87 90 88 86 85 85 84 86 87 86 76 78 82 81 82 83 79 69 76 75 77 83 86 83 76 74 75 78 80 85 88 89 92 92 92 90 89 80 74 74 65
82 83 86 86 88 88 84 82 81 80 81 80 75 73 77 78 79 82 82 84 84 82 76 76 81 76 75 74 84 84 86 85 84 84 80 80 83 74 74 70 73 71 63
79 88 87 83 86 85 85 83 81 80 80 81 81 83 76 72 85 88 87 89 87 82 81 75 74 76 82 81 87 88 86 85 82 78 85 85 83 75 76 73 73 71 64
80 80 92 81 85 86 85 84 83 81 81 80 85 89 88 76 80 82 81 87 84 80 85 79 83 85 80 82 79 85 84 90 84 81 78 78 83 80 71 71 70 63 57
78 77 78 83 82 86 86 83 85 83 81 80 80 78 86 81 77 77 78 86 89 83 78 78 75 73 77 81 82 89 88 90 89 87 83 79 74 74 71 71 72 70 61
77 78 74 74 80 84 87 84 86 84 83 86 82 81 81 86 86 82 86 89 83 84 80 79 82 78 76 81 79 79 84 88 89 89 88 83 78 78 79 76 73 72 70
76 80 76 80 85 82 86 89 88 85 86 88 89 88 88 89 90 89 90 89 86 87 88 86 81 79 75 80 79 75 75 85 85 85 88 83 78 74 78 76 77 82 77
83 84 85 85 86 88 88 85 86 88 88 89 89 88 82 86 82 88 90 89 88 87 85 85 84 81 82 83 81 79 86 95 92 94 83 80 84 83 81 78 80 77 80
76 82 85 87 85 86 87 87 86 87 88 89 89 90 89 86 84 88 87 88 87 86 86 86 83 84 81 74 75 83 83 88 91 94 86 78 79 79 78 81 81 77 77

GFSGL_sfc_rhum_126.txt.gz
RH
78 83 83 80 79 81 82 86 88 88 89 86 87 86 90 92 90 89 89 86 87 90 94 91 90 87 89 84 91 87 87 90 91 71 74 74 90 97 97 96 94 91 84
75 80 85 84 82 84 86 86 87 87 86 89 89 87 88 86 82 87 86 82 90 96 94 95 92 91 89 86 88 85 76 83 80 92 86 94 95 96 95 97 98 94 93
75 79 84 86 85 86 86 86 85 86 86 86 86 92 90 91 91 89 86 87 90 93 92 94 91 91 92 89 83 77 79 85 80 83 88 94 95 97 98 95 96 94 92
75 77 81 82 83 84 82 83 85 84 86 86 87 87 88 85 85 88 89 95 95 94 93 93 90 88 87 86 83 74 79 84 86 87 92 97 94 94 93 94 97 94 94
74 75 77 75 76 79 83 81 82 83 82 84 86 87 87 83 84 92 92 91 94 93 93 93 90 87 92 86 80 80 80 85 90 93 97 96 98 98 97 92 94 95 98
73 75 71 70 68 75 79 79 79 78 81 81 86 86 89 84 94 95 95 89 92 95 95 94 92 99 96 96 97 92 85 84 91 94 96 96 93 93 93 95 95 98 99
73 74 72 70 70 72 69 73 77 85 81 83 82 83 88 90 92 94 96 91 94 95 96 95 94 93 99 91 99 100 99 100 98 88 90 88 89 82 89 96 96 93 93
78 80 76 73 73 71 73 76 77 78 81 83 84 84 84 82 89 90 89 92 95 94 94 94 95 96 97 98 96 97 98 98 98 99 96 87 83 75 83 81 91 95 99
89 86 86 80 78 78 81 85 79 81 85 90 87 88 90 89 89 88 83 86 89 93 93 94 93 95 98 98 98 99 100 100 98 98 98 98 98 98 99 94 100 99 100
93 94 86 84 89 93 94 94 86 89 96 83 98 97 90 97 88 89 86 88 93 93 93 92 94 95 96 98 98 99 99 100 100 100 100 99 99 98 98 100 100 100 100
73 88 86 89 94 92 91 97 99 100 99 99 100 100 99 93 94 84 86 95 97 95 95 95 96 95 94 95 97 99 100 100 98 99 98 98 98 98 98 98 99 100 100
69 66 76 84 76 86 86 91 94 97 99 100 100 99 98 100 81 82 81 86 90 99 98 97 96 92 93 94 94 95 96 96 97 97 96 97 97 97 97 97 97 98 98
52 58 59 61 73 83 82 89 76 84 80 82 80 85 87 90 93 79 80 81 84 97 98 92 86 87 90 95 96 95 95 96 97 96 96 97 98 98 97 97 97 96 95
43 48 46 50 50 53 55 64 75 83 81 78 82 84 86 84 88 88 90 91 84 90 94 98 90 90 88 91 93 95 97 97 97 97 97 98 97 96 96 96 96 95 92
40 42 49 45 44 44 51 66 66 82 82 85 89 89 92 90 91 81 83 88 88 87 93 94 92 90 91 93 92 94 94 94 96 97 97 97 96 96 96 97 96 96 94
42 44 54 53 52 48 48 51 74 72 72 72 73 82 85 80 78 78 74 73 74 74 85 88 90 89 90 89 90 92 92 92 93 94 94 94 93 93 91 91 91 91 90
54 56 51 52 53 58 61 65 71 68 63 67 69 71 74 76 78 78 73 67 68 67 80 82 86 88 85 80 82 84 89 92 93 91 92 93 93 91 91 91 91 90 90
74 69 73 75 76 75 74 74 73 75 79 77 65 66 67 70 72 74 72 65 71 69 69 74 77 74 66 64 68 75 79 86 89 89 91 92 93 92 91 90 90 91 88
67 68 73 72 73 72 71 70 69 69 70 70 67 64 64 63 64 67 69 76 76 73 66 65 71 68 67 64 79 78 79 78 77 79 77 77 84 79 86 87 87 86 77
60 67 67 67 69 69 69 68 67 68 67 69 71 76 71 64 76 78 77 81 79 71 71 64 66 67 75 74 80 82 77 77 74 70 79 80 78 72 72 69 68 67 59
66 65 66 64 67 68 69 68 67 67 68 68 73 86 75 71 72 72 70 76 74 72 78 69 70 74 74 74 70 78 77 84 76 73 72 70 77 72 65 65 64 56 52
65 65 64 66 64 70 71 65 69 69 67 68 69 65 70 73 69 68 69 78 80 72 70 73 71 67 68 71 74 82 79 84 83 80 76 70 66 67 65 65 66 64 56
64 66 63 59 65 65 70 66 69 71 69 71 69 70 70 77 77 73 77 80 74 76 73 72 77 72 71 75 73 72 76 81 82 83 82 74 68 69 71 68 64 64 65
63 68 62 66 71 67 73 76 72 65 68 73 77 77 78 78 81 79 80 79 77 78 78 78 72 72 72 76 74 70 69 81 79 78 78 74 67 63 67 64 66 68 67
70 72 71 70 72 76 77 72 73 74 75 76 78 78 72 76 72 78 79 76 75 77 73 74 77 72 73 74 75 75 81 86 85 87 74 68 70 68 68 66 67 66 66
64 65 69 71 72 75 76 77 77 76 76 77 77 80 78 75 73 78 76 76 74 72 71 72 72 72 74 67 72 80 78 81 85 85 84 67 69 68 68 67 56 67 63

GFSGL_sfc_rhum_129.txt.gz
RH
80 83 84 83 83 81 83 84 84 85 86 85 87 88 80 82 82 92 95 93 95 90 89 89 86 79 81 76 78 74 74 71 82 65 54 64 77 77 83 93 93 93 95
86 85 88 83 80 80 81 83 84 84 83 82 82 83 82 85 93 95 96 94 96 94 93 92 91 87 86 89 88 88 81 78 82 88 72 80 73 76 79 97 98 95 94
75 75 80 81 83 84 82 81 79 79 81 81 83 86 84 86 86 88 88 93 94 92 89 91 90 91 93 94 93 92 88 82 85 86 76 85 83 82 92 97 98 97 94
86 76 78 77 77 80 79 79 81 78 81 82 85 86 87 85 85 87 88 90 91 92 93 90 89 92 95 94 94 93 89 88 85 85 80 91 88 93 94 98 99 98 98
80 85 79 74 77 78 81 83 81 82 83 83 84 85 87 86 87 92 92 92 92 93 92 92 94 96 100 97 91 90 89 86 89 86 83 92 93 99 98 97 97 96 96
76 75 72 71 70 76 76 77 79 78 79 80 86 86 87 83 90 90 94 91 87 90 91 89 88 92 98 100 100 100 90 84 87 86 84 93 90 92 93 96 95 97 99
74 71 68 70 70 73 71 73 75 78 76 78 78 78 82 86 88 90 87 86 90 92 93 91 87 82 92 87 96 100 100 100 98 82 85 87 87 86 90 95 95 92 91
76 75 71 68 70 70 74 76 78 79 80 79 79 79 77 73 83 86 83 80 88 89 92 93 93 90 91 96 96 97 97 97 99 99 95 86 84 82 84 83 87 91 99
85 81 78 75 74 73 76 82 75 78 82 81 77 80 81 82 83 84 77 77 80 88 86 90 92 91 93 94 95 98 99 100 98 99 99 98 98 98 99 91 99 99 100
91 87 78 79 82 89 89 88 84 81 87 81 90 91 84 91 80 82 83 83 89 86 91 91 88 91 92 93 94 97 98 99 100 100 99 98 97 99 97 100 100 99 100
58 80 73 76 91 87 83 88 94 96 90 98 100 100 98 93 88 77 80 86 94 92 90 91 93 87 86 88 93 97 99 100 100 99 99 97 96 96 96 97 99 100 100
50 49 60 69 60 86 89 85 86 88 90 90 92 93 93 94 78 78 76 78 83 95 96 95 94 83 84 85 91 92 94 96 96 97 97 97 97 97 97 97 97 98 98
39 44 44 46 52 63 69 85 72 77 78 78 80 83 84 84 86 76 76 76 79 91 96 94 85 84 84 88 86 89 94 96 97 96 96 97 98 98 97 97 96 97 96
33 38 39 42 41 42 49 53 66 74 73 74 81 86 86 83 86 86 84 84 80 86 89 92 85 86 82 85 89 91 93 94 97 97 98 98 98 98 98 98 97 97 95
33 36 44 42 41 39 46 62 60 78 74 76 82 84 92 91 89 79 80 84 84 83 86 87 88 88 87 88 89 89 90 91 93 94 96 97 97 97 97 97 97 96 96
40 40 49 50 49 45 45 47 71 71 71 67 66 71 77 70 68 70 72 71 69 71 82 88 91 91 90 87 90 91 92 89 89 86 88 92 94 94 95 96 95 96 96
52 50 51 52 52 56 57 61 67 66 61 61 64 63 64 65 64 66 68 68 69 68 84 88 91 89 81 72 77 80 88 91 93 88 89 90 92 92 93 94 95 95 95
70 65 71 72 73 71 69 69 68 70 72 72 61 63 64 64 62 63 64 61 70 69 72 77 84 82 74 70 68 77 78 81 86 88 90 91 93 92 92 92 93 94 93
63 66 70 70 70 66 66 66 64 64 65 66 63 61 64 65 58 60 63 72 73 70 66 63 72 70 71 68 83 84 86 83 83 82 84 90 93 88 92 92 92 95 94
58 62 62 65 65 64 65 65 63 64 64 66 66 78 66 63 74 76 74 80 77 68 69 62 61 63 72 74 78 84 81 81 83 77 82 82 86 73 73 74 81 87 85
65 63 61 61 63 63 65 65 63 64 66 66 70 84 73 70 74 71 70 75 74 71 76 72 73 72 69 70 68 77 78 83 77 85 79 74 78 74 66 64 63 58 56
63 63 61 62 61 66 66 61 64 66 64 64 67 63 66 73 70 72 70 79 81 76 72 72 74 70 70 72 72 78 78 84 83 80 85 79 75 70 67 66 68 65 56
60 63 61 56 62 64 68 64 66 69 65 66 68 70 75 82 77 75 80 79 75 77 76 72 76 71 70 75 74 72 75 79 84 85 82 85 68 72 72 69 66 69 69
59 66 60 63 68 64 71 74 70 63 66 71 76 80 77 80 83 82 84 80 76 78 79 78 74 71 69 74 74 71 70 79 79 79 87 77 71 70 71 63 64 67 65
68 71 68 68 70 75 77 72 73 75 73 75 81 82 77 80 77 81 82 76 73 75 73 75 76 68 70 72 74 76 77 79 81 82 81 81 68 66 68 66 69 64 66
65 63 69 72 76 78 78 79 78 77 77 78 76 80 83 81 76 81 79 76 80 67 73 72 73 69 67 68 71 77 78 78 81 84 85 81 71 72 80 67 65 66 62

GFSGL_sfc_rhum_132.txt.gz
RH
91 92 88 87 90 88 91 90 91 90 90 88 86 84 85 88 87 92 95 95 97 94 93 93 88 90 93 94 92 86 86 89 91 81 79 89 87 91 93 95 94 94 96
88 86 86 82 83 89 87 88 85 86 84 84 84 82 82 84 87 90 90 91 94 96 96 97 95 90 91 92 97 94 96 92 89 89 85 94 92 91 86 95 97 95 94
84 87 87 84 82 84 83 84 82 82 82 80 81 83 83 85 86 88 90 91 92 94 95 95 96 95 96 96 96 98 94 91 92 90 84 92 90 93 94 96 98 96 94
95 90 88 88 85 82 81 80 82 81 84 82 82 82 83 83 84 86 86 88 87 86 91 92 94 95 96 95 95 94 94 95 94 94 92 89 94 94 93 96 99 97 94
97 96 96 88 82 78 80 79 78 80 78 79 82 84 87 83 84 89 86 88 88 88 87 86 91 91 92 93 91 96 97 97 96 97 95 93 95 99 97 94 95 97 98
80 83 77 78 76 77 76 77 77 77 78 78 81 80 86 85 91 92 89 91 86 88 91 90 89 88 92 92 93 94 96 98 97 93 92 93 90 90 93 94 95 99 99
80 75 73 72 74 77 74 72 78 79 78 80 81 80 83 84 85 87 84 82 86 88 91 93 90 85 90 87 88 90 92 96 100 97 97 92 89 87 91 97 96 97 97
76 74 72 73 74 74 76 77 78 76 78 80 80 80 81 74 80 82 82 82 86 86 89 89 89 89 88 90 89 88 88 96 96 93 98 98 98 97 94 89 92 95 100
78 78 77 75 76 78 81 85 80 81 83 84 83 80 79 79 76 78 78 80 81 82 80 85 86 87 85 87 88 92 90 92 90 95 95 96 96 97 97 99 98 100 100
86 76 74 81 80 84 84 84 83 82 84 82 84 86 80 85 76 75 75 80 86 84 82 83 81 80 80 83 91 94 97 97 96 95 97 97 98 99 97 99 99 99 100
57 72 70 74 84 81 81 81 84 85 83 85 86 86 85 82 84 75 73 80 91 92 90 88 88 78 77 81 84 92 95 93 94 96 95 96 96 96 97 97 98 99 100
52 53 57 70 64 77 82 81 80 82 84 85 86 86 86 85 76 76 75 74 75 90 94 93 88 77 81 84 85 86 86 88 91 92 92 95 96 96 96 97 98 98 98
44 51 55 54 58 66 73 83 80 79 81 83 84 86 86 84 85 74 76 75 75 86 89 86 79 80 80 84 83 83 87 91 92 92 95 96 98 98 98 97 98 98 97
39 46 47 52 52 55 61 68 83 85 84 82 84 88 87 84 84 81 81 85 82 82 87 84 80 81 82 85 84 86 89 90 94 95 96 96 96 96 97 98 98 97 96
40 46 55 53 53 53 67 75 76 90 82 86 89 88 89 91 83 70 72 80 88 81 83 84 85 86 87 86 86 85 87 89 92 93 94 95 95 95 97 97 98 97 96
50 51 64 65 64 60 60 64 73 78 75 68 63 77 80 68 63 63 64 64 64 70 84 88 89 89 89 89 86 90 88 89 94 94 92 93 95 95 96 96 96 97 97
62 60 66 66 66 69 71 74 81 75 66 66 63 65 62 62 64 61 63 64 63 66 83 87 88 89 89 84 86 86 95 93 93 91 96 96 94 93 94 94 96 95 95
83 81 83 86 87 84 82 82 83 84 85 84 68 68 64 59 62 61 63 65 78 74 77 82 86 84 80 83 86 90 90 90 91 95 94 95 97 96 95 94 94 96 95
72 78 83 84 85 82 81 80 79 79 80 81 79 84 77 58 61 61 65 84 85 83 80 79 84 84 81 77 86 89 94 92 93 94 95 93 96 96 95 95 96 95 95
72 78 77 78 80 78 80 80 77 80 80 81 83 95 88 77 86 85 85 89 88 85 86 80 80 84 86 85 87 87 90 89 91 92 93 95 93 90 96 91 90 97 95
80 76 79 74 77 79 80 79 79 80 82 82 85 87 85 85 88 87 86 90 88 88 90 87 87 86 86 85 86 89 88 90 88 90 93 93 95 96 84 85 84 80 81
79 77 75 78 77 83 80 77 81 81 80 80 80 79 83 86 86 85 88 94 95 89 90 90 88 87 87 86 91 91 89 90 90 91 91 91 94 92 95 85 84 84 80
76 77 75 71 77 79 81 81 82 83 81 82 82 83 86 90 91 88 89 95 94 94 89 93 94 91 89 92 89 86 90 92 92 93 94 94 90 82 94 87 84 86 86
73 80 74 78 83 80 86 87 84 81 81 85 87 87 87 89 91 92 91 93 94 93 93 94 95 90 91 93 94 90 85 87 89 91 94 95 93 84 85 85 93 86 85
81 84 84 83 84 86 87 85 86 86 85 86 88 88 84 88 88 89 91 88 91 96 89 87 93 94 85 94 90 91 94 96 90 87 93 95 94 91 93 92 89 92 88
79 79 83 85 86 88 88 87 88 88 87 87 88 88 87 87 88 87 92 91 94 89 87 90 86 84 89 93 85 97 95 94 92 90 95 91 90 90 87 90 87 92 88